GFSGL_sfc_wetblb_000.txt.gz
Wetbulb
33.25 33.90 32.71 31.71 31.59 30.85 28.47 28.17 27.18 26.72 25.99 25.82 25.38 24.54 23.82 23.32 23.25 22.26 22.24 22.46 21.76 21.26 21.18 20.58 20.54 20.97 19.62 19.42 19.69 19.34 18.72 18.79 14.69 18.87 21.23 21.33 20.53 20.67 21.81 22.22 22.78 22.39 22.76
34.30 33.64 32.15 31.74 30.75 29.44 28.55 27.98 26.72 26.28 25.62 25.27 24.67 23.95 23.13 22.62 21.91 21.60 20.46 20.63 19.17 18.95 19.68 18.84 17.99 19.38 17.62 17.87 17.12 16.36 16.71 17.19 15.13 12.72 17.09 17.65 17.90 19.22 19.36 19.11 21.12 22.91 22.28
33.05 32.06 30.83 30.17 29.85 30.22 28.94 26.78 26.11 25.47 24.53 24.05 23.89 23.04 22.33 21.68 20.83 21.01 20.49 19.87 19.20 19.39 19.19 18.09 17.37 16.76 15.89 15.85 15.43 15.22 15.43 16.24 15.73 13.86 13.30 16.80 17.14 18.64 18.20 19.31 20.05 21.31 23.17
32.25 31.30 30.90 30.09 29.90 29.85 28.77 26.35 26.04 25.28 23.78 23.54 23.31 22.71 21.51 20.68 20.46 20.47 19.95 18.97 18.61 18.82 19.09 18.16 17.38 16.72 16.71 16.02 14.80 14.88 15.02 13.33 13.61 13.52 13.60 14.25 16.05 18.66 19.55 18.40 19.01 22.07 22.31
32.39 30.97 31.04 30.68 29.91 29.06 26.09 25.10 24.87 24.05 23.67 23.04 21.17 20.36 19.92 19.67 20.13 19.87 19.93 17.04 16.84 16.94 17.31 17.74 17.40 17.74 18.97 18.25 15.60 14.17 14.26 13.10 13.32 13.33 14.24 15.46 16.77 18.11 18.63 20.24 18.46 18.98 20.22
31.56 30.80 30.97 29.10 27.70 26.46 24.72 24.11 22.98 22.35 21.32 20.55 19.44 18.43 17.38 20.04 24.11 24.81 20.59 17.36 16.88 16.44 15.99 16.67 17.92 17.55 18.93 21.32 22.41 23.15 22.26 17.73 16.22 16.17 17.66 17.48 17.12 18.08 20.00 19.73 19.16 17.54 14.77
31.07 30.51 28.74 27.51 25.55 23.78 23.50 22.27 21.20 20.56 19.78 18.78 17.86 17.00 16.42 18.17 25.78 26.17 23.29 18.49 17.56 17.15 17.28 17.33 17.33 18.33 17.81 17.83 20.12 22.08 22.90 23.88 24.14 21.06 18.57 18.90 18.25 19.30 19.72 18.29 18.14 17.50 16.66
30.45 29.30 26.89 25.27 23.85 22.01 21.45 20.87 20.66 20.18 18.88 18.20 16.42 16.93 16.71 17.22 26.98 27.40 24.80 19.94 18.37 17.98 17.54 17.45 16.89 17.39 18.42 18.68 18.67 17.73 18.73 19.60 20.88 21.81 21.48 21.10 21.85 22.60 22.31 22.47 21.67 20.69 21.49
27.66 27.63 26.27 25.01 23.48 20.72 20.48 20.50 20.26 19.22 18.35 17.91 16.92 15.84 15.69 16.26 27.21 27.47 25.31 18.97 18.46 17.79 18.10 18.14 17.96 17.77 19.73 21.76 19.76 17.47 18.29 20.21 23.83 24.77 24.74 25.01 25.68 25.75 23.97 19.37 15.62 14.39 13.19
25.92 25.61 24.54 24.13 22.70 20.66 20.61 19.65 19.55 19.06 18.10 17.55 15.55 15.84 16.03 15.00 26.03 26.69 24.60 18.10 15.86 16.61 17.08 18.35 20.65 19.19 21.87 23.12 19.28 18.62 17.61 18.27 17.23 16.97 19.67 16.47 18.29 16.42 19.91 17.51 14.83 11.78 12.53
22.22 20.31 18.93 19.96 19.89 19.09 18.89 18.34 17.37 17.06 15.86 15.89 14.38 14.21 15.08 14.57 20.73 26.10 26.00 17.87 15.42 14.35 15.15 15.50 18.17 20.99 21.57 22.87 24.55 18.75 17.16 19.13 18.97 11.71 11.04 11.80 12.96 13.72 14.70 16.42 17.21 15.53 13.37
18.79 17.51 17.76 17.83 18.43 18.14 15.55 15.52 15.32 15.44 14.12 13.20 11.88 11.20 13.49 13.87 16.50 24.24 25.17 22.56 20.97 13.42 14.54 17.48 17.89 20.02 21.63 22.51 20.90 19.99 20.67 19.40 7.42 7.02 7.61 8.48 10.00 11.55 13.93 15.96 16.96 17.10 17.47
18.87 18.89 17.86 15.05 16.13 16.48 15.20 13.69 12.89 13.50 13.56 11.42 11.89 11.45 11.59 13.11 14.34 22.82 25.01 25.31 23.58 17.13 17.03 18.41 20.00 18.39 18.12 16.40 15.70 17.58 15.38 9.03 6.93 5.71 6.32 8.46 11.59 13.38 14.52 14.25 16.36 16.59 16.67
19.05 17.50 16.26 14.83 14.21 14.37 14.06 13.73 13.27 12.98 13.19 12.54 12.65 11.55 11.79 12.20 14.02 18.13 20.14 21.39 22.37 19.42 17.70 9.74 12.43 12.70 12.94 13.12 10.40 11.07 10.00 9.27 8.28 7.18 7.62 10.16 11.68 11.24 10.63 13.07 12.60 13.21 12.51
18.45 16.83 15.53 15.07 13.12 13.41 14.25 13.51 14.17 14.68 16.00 13.74 14.23 13.96 12.62 11.87 13.97 18.18 16.65 13.05 13.13 14.15 1.69 -1.02 0.38 5.19 5.36 6.21 6.51 6.56 7.77 7.84 7.02 7.71 7.58 7.43 8.41 9.43 9.50 12.34 13.30 13.16 10.49
17.75 15.57 14.24 13.99 12.61 12.92 12.50 12.09 19.99 19.46 20.61 21.68 20.96 17.75 16.75 18.50 20.15 21.07 20.97 20.61 20.44 18.24 -2.75 -6.81 -1.59 1.77 2.31 3.26 3.04 3.34 4.83 5.72 6.55 6.95 6.67 6.77 7.08 7.37 7.66 10.05 13.08 11.53 9.36
19.93 17.72 14.75 13.68 11.77 11.67 10.90 10.18 9.78 16.97 20.79 22.70 22.46 21.13 19.79 20.40 22.38 22.97 23.55 23.19 20.84 11.06 -5.95 -6.60 -5.28 -1.30 -0.89 0.97 1.41 1.97 1.90 3.78 5.86 5.12 5.61 5.44 6.04 6.62 7.34 9.28 11.01 10.49 8.60
19.56 18.69 14.96 12.99 11.67 11.49 11.40 11.44 12.67 12.28 13.94 16.55 22.00 20.44 22.03 23.18 24.19 23.85 22.60 19.09 7.58 1.18 -8.54 -10.50 -9.91 -8.34 -4.16 -2.35 -1.28 -0.87 -0.24 0.94 1.92 2.99 3.52 3.28 4.43 6.09 6.41 9.26 9.43 8.23 7.72
18.48 17.00 13.83 12.23 11.55 11.52 11.87 12.62 13.37 14.26 15.29 15.50 16.51 19.84 22.13 24.44 23.69 22.38 17.34 3.36 -0.09 -4.04 -9.52 -9.45 -10.74 -7.40 -5.87 -6.13 -5.99 -6.73 -6.05 -3.46 -1.12 -0.06 1.13 2.88 4.95 5.16 7.95 9.02 8.98 8.84 8.52
19.40 17.70 13.53 12.07 10.99 10.50 11.62 12.51 13.84 14.44 14.49 14.08 14.47 15.47 18.16 18.60 11.43 3.99 0.11 -1.65 -2.67 -6.28 -5.35 -8.96 -9.97 -11.85 -11.81 -13.00 -13.54 -12.51 -8.52 -5.47 -2.90 -0.37 1.17 3.26 5.31 6.01 8.20 7.86 8.17 7.75 7.15
17.63 15.24 12.01 11.53 11.11 10.92 11.86 12.26 13.38 12.80 12.40 13.29 11.57 11.88 15.99 9.68 3.37 0.12 -3.07 -3.04 -4.60 -5.91 -6.93 -9.72 -11.88 -14.02 -15.00 -16.18 -17.06 -16.49 -11.34 -5.69 -3.75 -0.78 1.49 3.33 4.44 7.43 7.82 8.12 8.01 8.07 7.68
14.23 11.05 10.71 9.85 10.46 10.25 11.13 11.72 10.50 10.23 10.04 6.50 7.88 13.95 16.14 4.74 1.51 -2.01 -2.54 -4.24 -6.60 -7.86 -9.71 -12.81 -13.87 -15.22 -13.99 -16.88 -18.16 -14.31 -9.48 -7.40 -4.51 -0.97 1.18 2.82 5.79 7.73 7.16 6.83 6.91 7.68 6.98
10.82 9.62 9.51 9.49 10.02 10.27 9.75 9.11 8.59 8.50 6.71 6.56 8.80 10.49 2.69 0.84 -1.18 -1.94 -3.93 -7.75 -7.99 -8.35 -10.43 -13.66 -13.80 -13.54 -13.70 -16.35 -15.24 -10.65 -10.50 -8.05 -4.65 -1.17 -0.24 2.84 7.37 7.01 6.57 5.31 6.03 6.03 6.38
8.52 7.78 7.12 7.69 7.78 7.91 7.48 6.53 6.38 6.15 6.30 6.11 5.04 1.63 -0.39 -2.32 -3.50 -5.16 -7.21 -8.61 -9.57 -12.49 -15.32 -15.45 -14.76 -15.22 -14.25 -15.76 -16.38 -13.02 -10.22 -7.47 -4.51 -0.31 2.49 7.39 7.23 7.10 5.93 5.10 5.41 5.91 6.03
5.76 5.22 5.32 5.22 4.80 4.26 3.85 3.54 3.54 3.98 2.83 1.71 -0.38 -2.02 -3.98 -5.10 -6.24 -7.41 -9.04 -9.67 -11.14 -13.14 -13.23 -14.19 -15.31 -15.86 -15.68 -15.99 -14.78 -13.98 -10.26 -5.02 -2.94 3.45 9.14 7.60 7.75 5.95 4.97 4.76 4.63 5.44 5.82
3.17 3.11 2.79 2.71 2.30 2.01 1.13 0.33 -0.09 0.34 -0.83 -1.88 -3.10 -4.42 -4.94 -5.86 -7.23 -8.88 -9.99 -11.20 -11.89 -12.50 -14.57 -15.80 -17.57 -16.93 -16.35 -14.01 -12.59 -8.23 -2.64 4.89 7.24 12.65 9.05 8.30 8.14 5.40 4.46 4.01 4.07 4.61 5.14

GFSGL_sfc_wetblb_003.txt.gz
Wetbulb
33.17 34.07 33.84 33.28 33.65 32.47 30.15 30.08 29.76 28.41 27.06 26.82 26.52 25.87 25.52 25.05 24.81 24.13 23.59 23.28 22.89 22.75 23.05 22.77 21.85 21.52 19.84 19.35 20.09 19.84 19.36 19.52 15.83 18.51 21.51 21.17 21.08 20.98 21.75 22.30 22.81 22.80 23.59
34.93 34.63 33.65 33.14 31.87 31.20 30.35 29.16 29.51 27.66 26.90 26.68 26.07 26.00 25.79 25.28 24.38 23.97 22.53 22.77 21.99 21.32 21.41 20.41 19.15 19.88 17.48 17.59 17.22 17.02 17.06 17.73 15.95 13.84 17.76 18.56 18.21 19.38 19.77 19.80 21.61 23.37 23.31
33.47 32.38 31.63 31.30 30.32 30.76 31.05 28.47 28.26 27.57 26.52 26.13 25.83 25.40 25.07 24.65 23.50 23.66 23.04 22.22 21.69 21.69 20.80 19.30 17.98 17.20 15.70 15.37 15.13 14.96 15.68 16.94 16.16 14.58 14.01 17.50 17.90 19.26 19.19 20.90 21.63 22.81 24.57
31.84 31.57 32.22 31.60 31.38 32.19 31.70 28.44 27.52 27.46 26.15 25.30 25.52 25.53 24.99 24.32 23.57 23.18 22.74 21.40 20.74 20.59 20.51 19.29 17.77 16.62 15.94 14.84 15.23 15.14 15.26 14.09 13.93 13.96 14.45 15.34 16.99 19.69 20.42 19.61 19.26 21.65 21.88
32.23 32.98 32.96 33.14 33.06 32.31 31.03 28.08 27.19 26.50 26.72 25.52 24.37 24.18 23.94 23.54 23.20 22.41 21.92 19.48 18.83 17.83 17.99 18.00 17.47 17.46 19.98 18.59 15.63 14.12 13.96 11.85 12.22 12.32 14.01 15.77 17.41 18.83 17.92 19.92 19.07 19.53 20.41
33.55 32.89 33.89 32.66 30.23 30.52 30.33 27.79 26.19 25.12 24.89 24.32 23.47 22.67 22.08 23.49 27.43 27.17 22.49 18.95 18.34 17.45 16.22 16.93 17.55 18.14 19.93 22.11 21.90 21.07 17.19 10.92 10.24 11.54 16.03 17.58 17.71 18.95 19.90 18.84 18.15 17.17 15.50
32.89 33.96 32.13 28.72 28.56 28.57 27.70 26.08 25.36 24.28 23.61 23.31 22.61 21.82 21.12 22.48 28.04 28.33 25.45 19.57 18.10 17.22 16.93 16.71 17.08 17.98 17.63 18.39 22.58 23.99 24.04 24.87 24.98 21.46 18.06 18.55 18.37 19.33 19.96 18.91 19.25 19.10 18.76
31.82 32.23 27.85 28.64 29.09 26.44 24.98 23.79 24.01 23.83 22.64 22.30 21.65 21.40 20.92 21.09 28.68 29.09 26.10 19.78 18.28 17.45 17.56 17.77 17.57 17.57 17.93 17.50 17.43 17.32 18.40 18.79 19.63 20.24 19.79 19.81 20.88 22.33 22.11 22.47 20.82 17.19 17.05
27.89 28.13 27.16 26.49 27.06 23.65 24.00 23.25 23.35 23.00 22.01 21.73 21.37 20.35 19.96 20.23 28.84 29.28 26.04 19.05 18.62 17.91 18.24 18.59 17.91 17.77 19.98 22.22 18.22 14.81 16.80 19.30 23.28 25.20 26.25 26.44 26.19 26.16 25.12 18.50 11.95 10.95 10.07
26.29 25.90 23.54 22.13 21.65 23.30 23.27 22.16 22.60 22.47 21.47 21.18 19.78 20.02 19.86 19.19 28.45 29.53 25.50 19.21 16.75 16.89 17.69 18.22 20.15 19.00 21.31 22.88 19.01 13.32 11.36 17.62 19.71 14.79 18.52 19.79 19.05 17.96 20.21 17.13 13.05 9.12 9.57
24.17 20.58 17.74 18.85 19.75 22.52 22.53 21.33 19.85 19.57 19.68 18.73 17.98 17.71 18.08 19.07 25.01 29.77 28.17 18.72 17.04 16.23 15.82 16.39 18.05 22.85 22.69 23.86 23.72 19.25 18.94 18.73 14.79 8.81 10.12 11.22 12.58 13.59 14.23 15.09 15.61 13.80 11.17
26.21 20.58 19.70 16.76 17.68 20.55 20.76 19.55 18.67 18.38 16.91 16.32 15.49 15.14 15.88 18.00 24.33 29.49 29.55 23.58 22.24 15.37 15.64 16.80 18.04 23.03 23.16 23.15 23.20 21.52 21.89 19.32 2.34 0.55 2.82 6.44 9.05 10.78 13.28 14.96 16.26 16.23 16.25
29.41 26.53 22.88 20.81 18.96 19.67 18.36 17.11 16.57 16.91 15.63 14.37 14.34 14.40 13.68 15.47 19.94 28.40 29.13 26.41 23.88 16.62 17.15 19.10 21.43 22.56 22.72 20.71 18.37 17.69 15.34 7.70 2.68 -0.22 3.92 7.22 10.71 12.72 14.54 13.79 14.72 14.66 14.92
24.47 26.09 23.13 19.64 18.36 18.03 18.09 16.54 16.54 15.01 15.25 14.68 14.34 14.15 13.91 14.04 16.20 22.62 24.28 25.50 23.30 19.64 20.70 20.57 19.89 16.63 15.78 14.44 12.18 12.11 10.60 9.64 8.57 6.52 6.95 9.34 10.95 10.41 9.75 11.49 10.12 10.96 10.06
19.70 23.36 22.16 18.97 18.29 16.94 17.09 16.62 16.82 17.78 18.52 16.43 16.50 16.34 13.80 12.68 14.69 21.30 23.03 22.91 21.32 19.22 11.46 10.56 7.80 8.27 7.90 8.35 7.66 7.21 7.87 8.21 7.11 7.12 6.72 6.46 7.37 8.15 8.41 10.10 9.59 8.83 7.65
13.86 17.42 21.28 18.68 16.82 16.30 15.34 14.76 21.53 21.80 22.23 24.39 23.92 20.54 18.32 20.97 21.74 23.88 25.82 26.49 23.38 20.96 9.29 6.27 6.38 6.55 6.54 6.29 5.02 4.89 5.52 6.03 6.67 6.42 5.45 5.27 5.51 5.82 5.91 7.08 7.89 7.63 6.74
10.49 13.52 19.55 17.90 16.93 14.57 14.11 14.13 12.45 18.36 23.69 23.70 25.15 24.38 22.77 21.53 23.10 24.76 26.11 25.32 24.27 19.44 7.74 6.67 5.85 5.04 4.51 4.35 3.76 3.21 2.57 4.10 5.29 4.29 4.13 3.61 4.19 4.02 3.81 4.30 5.93 6.66 7.26
8.99 11.83 14.91 19.79 16.59 15.03 14.57 13.78 13.94 14.06 15.97 17.03 23.88 24.24 24.45 23.46 24.22 25.39 25.19 24.57 19.85 10.88 7.11 4.72 2.78 1.33 1.27 1.10 1.46 1.24 0.70 0.38 0.61 1.68 0.58 -0.43 -0.06 0.77 2.06 3.00 4.87 4.29 6.68
9.10 11.06 14.64 19.59 17.02 15.24 14.55 13.75 13.21 13.93 15.23 15.92 18.93 23.31 22.74 24.24 25.42 25.35 25.14 16.99 7.98 3.69 2.98 1.28 0.58 -0.34 -0.74 -1.61 -2.85 -5.04 -7.96 -8.68 -4.24 -4.48 -7.89 -4.60 -0.89 0.29 1.68 3.69 4.38 6.54 6.56
7.77 9.93 13.09 16.68 14.72 13.36 12.77 12.31 12.71 13.45 14.43 16.11 17.27 18.22 19.03 21.20 20.61 20.87 13.06 8.53 5.57 3.13 1.01 0.12 -3.04 -4.05 -4.94 -6.92 -11.22 -13.86 -17.20 -12.51 -8.25 -8.48 -8.45 -3.36 -1.10 1.13 2.60 3.02 5.14 5.68 5.03
7.57 9.97 13.08 17.25 13.14 12.27 12.31 12.09 13.12 13.77 14.87 15.58 16.78 18.42 21.98 20.45 18.06 7.18 6.05 6.00 3.97 1.42 -0.65 -1.89 -4.36 -6.85 -9.88 -13.99 -15.19 -17.54 -15.90 -10.25 -7.87 -11.30 -7.97 -3.54 -1.15 -0.43 2.26 3.84 6.54 6.09 5.13
7.76 11.20 13.79 12.49 11.78 11.39 11.91 12.88 13.57 14.72 15.34 14.85 15.98 19.23 24.23 10.74 8.56 5.77 3.94 2.28 0.64 -0.55 -1.98 -3.52 -6.65 -9.47 -10.60 -11.74 -12.34 -13.58 -13.70 -11.79 -10.74 -12.55 -7.36 -2.78 -1.83 -0.15 2.19 5.97 5.95 5.04 4.22
11.72 12.12 10.90 10.91 11.05 11.26 12.09 13.05 13.54 14.02 13.52 12.88 14.66 15.83 8.55 6.12 4.44 2.90 1.15 -2.02 -3.18 -4.78 -6.27 -8.81 -10.24 -10.94 -11.53 -12.71 -12.93 -11.12 -11.99 -10.86 -10.71 -13.26 -7.43 -4.85 -2.56 0.53 4.78 5.71 5.09 3.26 2.65
8.22 8.63 8.90 9.33 9.89 10.23 9.50 9.83 11.11 9.05 10.31 12.08 9.75 6.22 4.36 3.05 1.38 -0.60 -2.39 -4.05 -4.94 -7.53 -8.58 -9.59 -9.93 -11.34 -13.18 -15.25 -14.66 -14.65 -13.63 -11.92 -12.90 -10.46 -8.55 -4.50 -1.62 2.97 5.88 5.73 3.82 2.42 2.40
6.03 6.38 6.96 7.09 7.27 7.10 7.11 6.70 6.54 7.53 8.38 3.92 2.53 1.39 0.44 -0.36 -1.50 -3.58 -4.90 -4.94 -6.54 -9.15 -9.50 -9.60 -9.73 -10.79 -12.26 -12.44 -12.80 -13.87 -13.05 -7.69 -9.48 -7.00 -4.75 0.67 4.86 2.81 5.59 3.81 1.94 1.62 1.96
2.99 3.22 3.42 3.90 3.87 4.29 4.79 4.92 4.04 3.21 1.69 0.97 0.02 -0.68 -1.17 -2.22 -3.90 -5.32 -6.55 -7.14 -7.66 -7.89 -8.43 -8.96 -9.87 -10.84 -11.16 -11.51 -11.93 -9.18 -6.80 0.35 1.69 6.24 10.08 10.88 1.79 4.43 5.42 1.58 -0.01 0.69 0.94

GFSGL_sfc_wetblb_009.txt.gz
Wetbulb
35.88 35.22 33.61 33.51 33.63 33.38 31.86 32.07 32.52 32.19 31.34 30.72 30.95 30.94 30.14 29.95 30.01 29.73 30.30 29.27 28.88 28.64 28.43 28.39 27.87 28.26 28.39 28.08 28.43 28.35 27.52 26.99 27.07 23.43 25.93 26.19 25.39 25.24 25.43 25.61 25.93 26.73 27.80
35.02 35.02 34.76 33.20 32.35 31.97 32.22 31.86 31.63 31.14 30.76 30.77 30.34 30.11 29.91 29.78 29.45 29.33 28.90 28.61 28.53 27.34 27.26 27.13 26.86 26.50 26.50 26.79 26.75 26.11 25.98 25.61 24.85 23.56 22.25 23.24 23.38 23.88 24.17 23.81 24.53 25.84 26.90
33.74 33.32 33.93 33.94 33.00 32.13 32.05 32.08 30.76 31.51 30.41 30.37 29.92 29.40 29.19 29.28 29.09 29.28 29.65 28.90 28.71 28.78 27.79 26.66 26.15 25.84 24.94 25.01 24.76 23.85 23.74 23.25 23.00 21.91 21.14 21.54 22.21 23.00 23.38 24.14 24.27 25.56 25.93
32.66 32.29 32.16 32.36 32.77 33.01 33.02 32.60 30.56 30.93 30.72 30.26 29.91 29.73 29.51 29.28 29.13 28.76 29.04 28.72 28.13 28.38 28.01 27.55 26.14 25.28 24.83 23.79 22.79 22.52 21.93 21.52 20.92 20.06 19.19 19.21 20.24 22.18 22.41 22.17 22.82 24.74 24.23
31.61 31.38 31.39 31.78 31.92 31.82 31.78 31.91 31.74 30.04 30.41 30.20 29.86 29.44 29.52 28.85 28.55 28.36 28.61 28.38 27.77 27.42 26.92 26.59 26.06 25.86 27.11 25.18 22.77 21.37 20.54 19.98 19.48 18.61 18.00 18.47 19.56 19.86 20.43 22.88 21.42 22.84 24.22
30.21 30.61 31.16 30.91 30.07 29.90 30.79 30.36 30.41 29.71 29.10 29.48 28.58 28.42 28.39 28.41 31.73 32.62 29.83 27.95 27.33 26.54 24.87 25.14 25.22 24.71 26.71 27.47 26.91 25.15 22.52 18.20 16.82 17.78 18.48 17.77 19.83 21.50 22.08 21.21 20.96 20.71 20.58
28.13 29.07 29.35 29.76 28.37 27.96 28.85 28.87 28.27 28.74 28.83 27.94 28.16 28.07 27.70 28.53 32.82 33.48 32.50 28.03 26.97 26.63 25.54 24.26 22.86 23.21 24.51 25.05 27.48 26.39 25.43 25.05 22.09 19.97 20.06 20.62 21.24 22.11 22.03 21.10 21.44 21.49 20.82
25.65 25.93 26.87 25.51 25.27 26.83 26.94 27.34 27.37 27.48 27.26 26.96 27.46 27.84 27.59 28.20 31.55 33.50 32.62 28.54 27.15 26.72 25.54 24.39 23.38 22.28 23.49 23.58 24.30 23.71 23.12 23.25 22.31 22.07 22.72 23.62 23.65 23.61 23.28 23.50 22.43 19.92 18.73
23.40 23.32 23.36 22.78 21.86 25.95 25.55 25.50 26.09 25.39 25.81 26.62 27.51 27.34 26.79 27.49 30.89 32.77 32.76 29.32 26.09 25.87 24.94 24.55 23.92 22.36 24.74 26.76 23.59 22.24 21.36 21.42 25.59 26.79 26.14 25.63 25.68 26.64 26.44 21.55 17.21 14.62 13.79
22.00 22.09 21.66 21.05 21.27 23.54 23.27 24.59 25.50 24.84 25.22 25.71 25.41 26.03 26.05 26.29 29.79 31.10 32.90 30.01 25.36 24.44 23.53 23.04 24.54 23.14 26.05 27.37 22.80 22.11 20.81 21.59 22.20 23.52 23.77 25.76 26.94 23.17 22.80 21.16 17.20 12.73 12.91
20.00 19.44 18.20 18.72 19.37 20.28 20.80 23.46 23.82 23.60 23.96 23.78 22.87 23.92 23.77 24.99 25.70 30.19 32.42 30.17 25.07 23.76 21.77 21.03 21.69 26.02 26.64 28.18 25.22 21.56 21.70 22.15 22.33 20.49 21.28 19.83 18.60 18.08 17.88 18.31 18.50 16.18 13.03
16.55 15.98 15.54 15.31 16.08 17.19 16.76 18.84 22.39 22.12 21.27 22.32 22.24 22.44 22.09 23.09 24.76 28.00 31.05 33.68 27.82 23.64 21.35 21.64 21.46 26.59 27.14 28.59 25.96 22.63 24.00 22.07 20.20 18.26 16.62 15.42 15.09 14.66 16.14 17.01 17.51 17.72 18.05
13.21 12.19 12.35 12.67 12.85 13.36 13.43 15.22 18.41 21.82 19.77 20.86 20.74 20.37 21.03 21.49 22.84 27.39 28.83 32.43 29.52 23.39 23.13 22.88 23.58 26.91 27.54 28.44 27.65 24.17 23.11 18.34 16.07 13.19 13.03 14.24 14.62 15.70 15.92 15.39 15.36 14.75 14.73
9.11 9.29 9.89 9.28 9.63 10.48 12.03 14.09 16.11 19.89 20.34 20.17 20.38 19.52 20.19 19.49 19.76 21.77 25.39 28.75 28.89 25.71 24.18 23.06 23.71 25.99 26.75 26.24 25.95 25.24 19.47 17.39 15.43 14.89 13.24 13.59 14.05 12.98 12.44 13.30 11.79 12.16 10.97
6.75 6.87 6.41 6.57 6.55 7.44 9.56 11.64 14.57 19.76 21.62 20.38 20.71 21.07 20.06 18.83 19.22 22.44 23.74 25.71 26.40 24.38 21.21 21.05 21.28 22.76 22.35 21.94 20.88 16.68 15.24 14.03 13.34 13.08 11.57 10.71 11.00 11.02 10.97 11.87 11.31 10.04 7.81
2.29 2.67 2.90 3.47 4.16 5.15 5.87 7.55 15.23 18.89 22.57 26.20 26.39 25.67 22.40 24.60 25.72 25.43 26.73 28.43 29.29 25.68 19.52 18.85 19.65 21.12 16.71 17.94 15.16 13.50 13.09 11.88 12.30 11.12 10.68 9.95 9.43 9.48 9.28 9.41 9.39 7.90 6.55
-0.18 0.65 1.08 1.68 1.96 2.21 3.44 5.12 6.03 12.09 20.85 25.07 26.06 27.73 27.70 26.96 25.52 26.65 27.43 28.75 30.41 26.17 19.03 18.82 19.15 19.09 16.90 16.20 14.14 12.30 10.86 11.61 12.24 11.19 9.84 9.15 8.25 7.69 6.86 6.69 6.94 6.90 6.11
0.04 0.36 0.15 0.39 0.81 1.41 2.60 4.40 6.50 8.12 10.63 15.52 20.97 23.44 26.88 28.07 28.46 26.75 27.24 28.56 25.99 24.81 19.96 19.23 18.32 17.19 14.41 13.31 12.75 11.85 10.86 10.38 9.84 9.37 8.55 7.34 5.88 5.14 4.15 4.36 5.01 3.79 4.19
-0.08 -0.06 0.35 0.76 1.17 1.86 3.04 3.96 5.89 7.19 8.55 13.62 16.06 19.29 22.08 28.20 28.36 26.83 27.51 24.59 24.36 21.53 18.38 17.38 15.63 14.81 13.84 13.54 12.43 11.67 10.00 8.28 7.95 6.48 4.99 3.00 2.05 1.66 1.11 2.33 2.98 3.07 3.41
0.57 1.46 2.16 2.03 1.96 1.91 2.69 3.75 4.73 6.38 8.82 13.47 14.15 15.32 18.80 22.34 23.24 23.02 23.96 23.40 24.73 22.40 16.19 15.17 14.56 14.31 12.98 11.26 9.41 7.69 5.90 4.45 3.03 2.05 1.17 0.82 0.63 0.99 1.83 0.50 1.44 2.58 2.78
2.09 2.11 2.47 2.38 1.81 2.15 2.53 3.27 5.75 8.01 11.56 12.76 13.31 16.11 20.41 20.35 21.64 21.18 21.57 22.51 18.25 14.79 14.97 12.00 10.62 9.45 8.36 6.42 4.60 3.61 2.84 1.87 0.85 -0.07 -0.43 -0.82 -1.58 -1.55 -0.43 1.24 1.64 1.21 1.53
3.81 3.76 4.16 4.55 5.30 3.46 3.85 5.89 7.65 9.90 12.46 12.15 13.20 15.34 20.82 21.48 21.11 20.21 16.36 12.60 12.49 11.59 9.97 7.35 5.02 4.22 3.87 3.81 3.06 2.17 1.34 0.10 -0.74 -0.59 -0.95 -1.75 -2.29 -1.93 -2.45 -0.84 -0.65 0.92 2.28
3.02 3.52 4.75 6.60 8.97 9.73 7.05 8.91 11.65 12.16 12.34 13.05 14.18 15.68 16.51 11.76 7.98 6.03 4.78 4.68 4.87 4.57 4.61 3.39 1.88 0.44 1.32 1.38 2.65 2.65 1.23 -0.17 -0.43 -1.48 -2.35 -3.10 -4.09 -3.55 -4.20 -2.86 -1.55 -0.65 1.63
2.37 2.84 3.71 5.13 7.60 8.28 9.07 9.94 11.06 12.23 10.01 7.06 6.63 5.91 4.78 4.37 2.49 1.63 1.54 1.49 1.53 1.86 2.80 2.48 1.62 0.11 -1.68 -2.01 -1.84 -1.33 -0.56 -1.66 -2.82 -3.56 -3.46 -4.45 -4.52 -5.49 -4.63 -3.95 -1.62 0.29 3.20
0.71 1.21 2.15 2.84 3.81 4.87 4.46 4.04 4.07 3.60 3.86 3.50 2.79 2.42 1.90 1.82 0.91 0.54 0.49 0.55 0.41 0.32 -0.48 -0.31 -0.27 -1.81 -2.88 -4.39 -4.88 -5.51 -6.06 -1.62 -7.25 -7.23 -8.05 -8.28 -7.04 -5.27 -4.70 -3.27 0.10 2.86 3.68
-2.01 -1.20 -0.62 0.49 0.65 1.14 1.22 1.41 1.27 1.52 1.35 1.68 1.49 1.15 0.78 0.29 0.19 -0.07 -0.17 -0.56 -1.60 -2.35 -3.14 -2.97 -3.33 -3.63 -3.94 -4.21 -5.27 -5.30 -5.39 -2.62 -4.35 -4.26 -7.23 -7.08 -4.86 -3.63 -3.02 0.68 1.54 2.79 3.34

GFSGL_sfc_wetblb_015.txt.gz
Wetbulb
35.15 35.60 35.72 35.43 35.12 35.54 35.29 36.18 37.15 37.60 37.78 37.58 37.66 37.62 38.06 38.08 38.83 38.22 37.73 37.43 36.66 36.81 36.91 36.56 36.49 37.03 36.49 36.37 35.82 36.00 35.27 36.77 37.55 30.65 34.43 35.16 33.62 31.62 29.75 29.45 30.60 29.37 30.37
33.71 34.29 34.35 34.48 33.86 33.10 32.89 33.35 34.75 34.87 36.27 36.26 36.78 36.04 35.98 36.66 37.40 36.97 35.92 35.12 35.84 35.23 35.54 34.88 34.98 34.40 34.89 35.37 34.81 33.96 33.59 34.03 34.65 28.22 30.69 31.40 31.41 31.41 28.84 27.32 27.57 28.93 29.67
32.61 32.85 33.36 33.07 32.73 32.09 31.71 31.76 32.45 32.70 33.22 34.95 34.92 34.61 34.75 35.07 35.33 35.55 35.71 34.90 35.06 35.33 35.18 34.67 33.96 34.12 32.88 34.03 33.69 32.94 32.74 29.60 32.77 29.94 27.24 29.52 29.33 30.14 28.58 27.68 27.71 27.31 28.10
32.83 31.60 31.47 31.72 31.83 31.20 30.77 30.85 31.19 31.73 31.75 31.83 32.62 33.61 33.91 33.92 33.35 33.76 33.70 33.46 33.94 34.39 34.42 34.54 33.68 33.25 32.72 33.02 32.30 32.33 31.76 30.79 30.59 30.20 26.54 26.61 26.40 27.05 26.78 25.09 24.46 26.95 26.96
31.72 30.98 30.48 30.80 30.79 30.33 29.36 28.95 29.87 30.79 31.02 31.30 31.10 31.19 32.05 32.67 32.00 32.36 32.47 32.07 31.76 32.32 33.46 32.92 33.67 33.47 33.95 34.19 32.46 32.31 31.69 30.87 29.73 29.00 26.71 25.05 24.60 23.23 23.15 25.43 25.54 26.42 27.20
29.97 29.20 29.34 28.92 28.90 28.44 27.99 27.21 27.44 29.01 29.89 29.61 29.15 29.28 29.61 31.00 33.19 34.43 33.42 31.61 31.43 30.80 30.69 32.49 32.32 31.81 32.69 35.03 35.98 36.21 33.83 31.24 29.45 28.92 27.92 25.93 25.13 25.23 25.09 24.84 25.25 25.02 22.97
28.44 28.42 28.10 27.63 27.25 27.20 26.69 25.70 25.15 25.48 27.74 27.04 27.44 28.49 28.37 29.78 32.37 33.39 34.21 32.26 31.51 31.11 30.56 30.48 30.74 30.84 30.91 30.99 34.20 35.67 35.41 36.15 35.45 31.14 29.16 27.77 26.23 25.98 25.68 25.66 25.37 25.40 26.05
27.30 26.99 27.48 27.08 25.89 26.06 25.15 23.87 23.63 24.36 24.71 24.88 25.53 26.98 27.63 28.21 31.33 32.32 33.11 32.14 31.37 31.49 31.25 30.80 30.25 30.62 30.73 29.53 29.43 30.95 31.42 31.36 33.07 32.37 31.58 30.46 29.44 28.31 28.03 27.74 26.79 27.11 25.90
25.30 25.46 25.73 25.69 24.23 24.12 22.50 21.84 22.42 22.50 22.43 22.46 23.90 24.03 24.32 26.11 29.88 30.87 31.03 30.98 30.62 30.63 31.12 31.35 31.01 30.41 32.44 33.58 28.78 28.93 29.35 29.89 32.71 34.90 32.71 33.08 32.31 31.66 30.11 27.23 24.31 23.28 21.96
23.78 23.97 24.14 23.61 22.40 21.70 22.05 21.20 21.72 21.24 20.66 21.51 21.19 21.69 22.07 22.41 27.00 29.24 29.77 29.45 29.48 29.65 30.65 30.86 31.51 31.34 32.85 33.94 29.33 28.40 27.37 28.28 27.46 28.59 27.39 29.65 30.65 30.44 31.37 27.82 26.06 22.72 21.30
21.33 20.72 19.93 19.98 19.29 19.29 18.97 19.42 18.90 18.03 17.92 16.83 17.23 18.19 18.99 20.68 22.76 27.82 29.61 28.16 28.49 28.85 29.26 30.08 31.02 33.23 33.56 33.75 33.14 28.84 28.37 30.09 28.88 27.14 24.82 25.74 26.33 26.62 26.64 26.57 26.45 25.24 21.38
15.51 13.97 13.17 12.69 13.30 14.11 12.98 13.67 14.06 13.84 13.03 12.96 13.57 14.96 17.68 19.69 23.00 26.12 28.66 29.82 30.31 28.40 28.65 30.00 30.97 33.40 32.89 33.52 32.69 31.50 32.02 31.31 27.09 25.19 23.16 23.74 24.02 23.81 24.89 25.47 25.29 24.49 24.70
9.25 7.10 6.97 7.70 8.10 8.65 8.22 8.39 8.96 10.03 10.23 10.65 11.55 11.89 13.71 17.88 20.62 25.16 27.84 29.30 30.07 28.37 29.14 30.82 32.20 32.93 32.97 31.63 32.85 32.50 30.19 28.79 24.64 23.06 21.82 23.15 24.09 24.61 25.13 22.95 22.07 21.50 21.37
4.32 4.37 5.16 4.61 5.00 5.69 6.80 7.13 6.30 6.33 6.21 7.47 7.73 8.65 11.13 13.74 16.57 20.27 23.57 26.13 27.25 27.28 28.42 28.78 30.95 32.38 31.68 29.35 27.80 30.45 28.66 28.13 24.50 23.17 22.83 24.36 24.22 22.67 19.45 19.41 17.39 17.77 16.03
3.48 3.64 3.78 4.47 4.36 4.73 5.76 5.55 5.60 6.75 7.24 5.49 6.29 7.64 7.65 8.47 12.37 18.33 21.48 23.18 25.73 25.72 25.42 27.03 28.07 28.75 25.98 25.18 25.75 26.63 27.52 27.06 24.30 24.18 24.26 22.59 20.13 18.63 17.34 17.96 16.75 15.20 13.69
1.49 2.01 2.55 2.48 2.99 3.82 3.85 4.19 10.01 11.82 13.39 14.33 15.24 13.86 12.40 16.52 18.43 19.73 21.26 22.53 24.19 26.46 26.12 23.48 25.36 26.13 23.36 23.15 24.27 24.30 26.16 25.63 24.05 23.63 22.86 19.62 17.56 17.07 15.57 16.06 15.93 14.16 13.22
-0.10 0.53 1.16 1.63 1.89 1.74 2.43 2.46 1.36 5.92 11.65 12.89 13.77 14.62 15.38 16.03 17.63 19.18 20.65 22.17 24.63 25.36 24.51 23.82 24.05 24.26 22.96 23.66 24.75 24.39 24.41 22.29 22.61 20.90 18.72 17.54 16.63 16.31 14.29 13.81 13.95 13.19 12.61
0.54 0.91 1.49 2.26 2.74 3.18 3.35 3.34 3.57 2.57 1.80 3.13 9.10 11.02 13.03 14.92 16.28 18.53 20.67 22.10 19.90 22.17 25.00 23.83 23.97 23.82 23.55 23.72 24.71 24.68 22.69 20.21 19.53 18.06 17.01 16.71 15.92 14.67 13.38 12.53 12.34 11.13 11.09
0.65 0.81 2.06 3.54 4.30 4.60 4.91 4.97 4.97 4.69 4.28 4.36 5.71 8.85 10.24 14.05 16.47 18.81 22.00 21.12 21.16 22.99 24.00 23.61 25.03 24.48 23.69 24.58 23.12 21.23 20.07 18.10 17.99 16.59 15.87 15.16 14.81 13.66 12.22 12.02 11.45 11.12 10.71
1.95 1.97 3.23 4.09 4.74 5.01 5.56 5.73 6.04 6.00 5.75 5.45 5.62 6.24 8.35 9.72 10.64 16.41 18.12 19.11 18.93 20.87 24.15 24.44 24.22 24.57 24.49 22.13 19.60 18.62 17.12 16.97 15.80 14.85 13.59 12.83 12.41 12.37 10.70 10.24 9.46 8.29 8.34
2.27 3.30 3.53 3.78 4.06 4.84 6.00 6.99 8.89 10.26 8.65 7.06 6.72 8.80 15.12 14.31 16.33 16.61 18.23 19.67 22.64 24.88 24.84 24.72 23.41 21.63 20.57 19.80 17.71 16.75 15.67 14.39 13.70 12.10 10.64 10.41 10.91 9.59 9.98 10.39 9.51 8.81 8.28
2.13 2.06 2.83 2.76 4.52 5.55 6.16 7.64 8.23 8.39 9.16 9.31 10.07 12.68 17.93 14.84 15.62 15.99 15.69 16.55 19.87 20.70 20.46 19.47 19.49 19.73 19.03 16.99 16.05 14.51 12.60 10.60 9.54 9.17 8.49 8.47 9.11 8.74 8.94 8.33 7.70 7.09 6.74
1.30 0.97 1.03 2.18 3.83 4.47 5.03 5.81 6.19 6.46 6.61 7.06 7.12 6.80 7.01 6.69 7.36 8.20 8.88 9.75 10.29 10.48 12.81 13.79 12.55 11.75 12.76 13.39 13.83 12.40 10.04 8.96 9.37 9.25 7.44 7.19 6.90 6.63 7.21 6.19 6.67 6.15 5.92
0.39 -0.03 0.01 0.90 1.78 2.30 3.35 3.70 4.21 4.29 4.50 4.41 4.53 4.73 4.73 5.06 5.32 5.60 6.15 7.14 7.44 7.44 7.63 7.82 8.68 9.15 9.63 10.34 10.86 10.90 10.25 9.70 9.75 9.01 8.29 7.10 5.99 6.26 6.50 5.90 5.41 5.69 5.98
-0.16 -0.77 -0.61 -0.44 -0.49 0.33 1.31 2.10 2.50 2.35 2.39 2.71 2.45 2.86 3.22 3.46 3.07 3.15 3.86 4.62 5.05 5.21 5.21 5.70 5.91 5.75 5.60 5.95 5.98 6.79 9.35 8.96 8.08 8.46 7.96 6.82 5.35 5.19 4.81 4.73 4.70 4.79 5.02
-0.45 -0.91 -1.35 -1.17 -0.95 -0.65 -0.17 0.08 1.10 1.60 1.39 1.61 1.88 2.25 2.45 2.25 2.35 2.49 2.83 3.06 2.77 2.57 2.77 3.16 3.24 3.10 3.06 4.06 3.58 5.78 6.52 7.05 4.25 5.19 5.86 5.15 3.63 3.09 3.21 3.35 3.35 3.96 4.01

GFSGL_sfc_wetblb_021.txt.gz
Wetbulb
30.33 30.39 30.80 30.57 29.29 28.47 26.84 27.10 27.10 27.35 28.10 28.96 29.15 28.71 29.08 29.64 30.74 30.72 30.77 31.12 30.97 31.99 31.85 31.22 31.93 31.80 33.73 34.27 31.20 31.30 33.12 29.56 33.71 31.33 27.87 28.66 31.88 32.68 31.09 30.93 29.89 30.05 31.48
30.48 29.41 29.25 29.85 29.23 27.61 27.31 26.89 26.21 25.77 26.68 27.08 28.22 28.07 28.10 28.40 28.75 28.82 29.54 30.10 30.40 30.72 31.96 31.15 31.43 32.73 30.89 33.08 33.30 32.81 32.66 30.71 32.68 33.01 26.39 27.60 29.87 32.52 30.99 29.24 28.37 29.40 28.69
29.86 28.56 28.27 26.98 26.86 27.44 27.17 27.49 27.06 27.17 26.55 25.99 26.40 26.13 26.85 27.36 27.83 28.04 27.98 28.80 29.61 30.34 31.74 31.33 31.48 31.30 31.10 31.98 30.95 32.48 33.14 32.68 31.02 30.56 27.48 26.57 27.83 30.78 26.48 27.94 27.10 26.85 27.27
27.01 25.68 24.89 24.72 25.88 26.40 25.73 25.22 25.16 26.35 25.60 25.55 25.74 25.54 26.09 26.52 27.10 27.37 27.90 28.30 28.68 29.65 30.20 30.72 31.76 31.49 31.33 31.81 31.44 31.84 32.32 32.22 30.79 29.52 25.37 25.31 25.98 26.91 29.11 26.78 24.27 25.47 25.79
26.16 25.18 24.89 25.06 25.66 25.50 24.84 24.72 24.15 24.29 24.83 24.71 24.70 24.93 25.20 25.33 26.20 25.10 26.53 27.35 28.11 28.78 29.64 30.26 30.56 31.36 32.98 33.85 32.09 31.96 31.91 31.65 31.82 30.94 29.37 23.49 23.66 25.03 26.63 26.42 26.42 26.08 25.47
24.49 23.98 24.71 24.82 25.13 24.82 24.94 25.08 25.05 24.76 24.22 23.77 23.47 22.92 22.17 24.07 27.67 29.09 28.66 26.33 27.25 27.48 27.72 29.26 30.00 30.30 31.65 34.36 35.56 36.11 34.84 31.82 30.98 31.28 31.13 28.90 28.30 28.76 28.23 26.90 26.71 23.51 21.44
20.94 21.37 21.75 22.69 22.78 23.28 23.45 23.10 22.53 21.91 22.06 21.40 21.58 22.04 21.81 22.28 26.39 27.26 27.49 25.47 25.07 25.60 26.61 27.45 28.36 29.67 29.87 30.27 32.76 35.47 35.54 36.55 36.96 32.85 31.14 31.38 30.19 29.54 28.37 27.50 26.78 26.91 27.24
20.43 18.72 19.25 20.79 19.15 19.53 18.98 18.20 18.19 18.41 17.99 18.25 18.83 19.71 20.16 21.38 25.39 25.91 25.93 23.53 23.04 23.60 24.23 25.11 26.23 27.43 28.88 29.21 29.21 29.57 30.81 32.30 33.44 34.09 33.96 33.24 33.42 30.52 30.32 30.55 28.99 28.85 26.55
19.12 18.99 18.23 16.37 14.33 14.08 12.18 12.58 13.45 13.22 12.99 12.91 14.60 14.52 14.93 15.98 21.04 22.17 22.34 21.07 20.93 20.43 21.77 22.54 23.35 24.59 28.45 31.13 28.95 28.10 28.23 29.76 33.43 35.86 36.42 37.05 37.30 37.21 31.72 29.49 27.60 25.78 22.73
16.84 16.04 15.08 13.53 10.32 9.52 9.66 8.55 9.21 8.94 9.92 10.49 9.91 10.43 10.63 9.91 15.64 17.69 18.31 16.26 15.62 17.17 18.68 20.58 22.98 23.62 26.78 29.05 27.16 27.54 26.86 27.81 29.10 30.06 31.95 34.78 36.18 35.48 35.64 30.12 29.42 25.57 26.18
13.44 12.02 10.52 9.87 7.53 6.79 6.54 6.83 5.86 5.15 6.31 4.83 5.75 6.74 7.28 8.74 9.60 15.40 17.43 15.71 15.30 15.33 16.01 17.34 20.18 24.22 26.09 28.07 29.99 28.12 28.19 30.04 30.22 29.32 29.42 30.37 31.61 32.54 32.97 31.38 30.39 29.07 27.61
8.63 7.30 5.98 4.41 4.52 5.99 3.20 3.42 3.31 2.96 2.46 2.53 2.82 3.85 6.35 8.20 11.52 13.59 15.93 17.27 17.46 13.18 12.73 15.53 17.45 21.91 24.48 27.00 27.86 30.18 32.58 33.01 30.61 28.88 28.61 28.75 29.11 30.16 31.88 32.31 30.08 30.26 31.14
1.43 0.03 0.97 2.83 3.66 3.72 1.58 1.36 1.59 2.52 2.26 2.15 2.91 2.75 3.85 6.92 7.90 13.13 15.37 16.06 16.22 13.20 13.51 15.19 18.47 20.14 22.29 25.31 28.09 30.08 29.82 29.16 29.87 29.27 27.99 27.60 28.63 29.73 31.04 30.66 30.57 29.99 29.84
-5.38 0.40 2.93 2.46 1.45 1.49 2.60 2.51 0.89 0.41 0.67 1.39 1.63 2.06 4.02 6.46 8.65 9.99 9.35 8.52 12.44 12.88 13.95 12.37 14.40 17.45 19.73 21.59 22.62 27.30 28.61 28.87 29.55 29.68 29.16 28.10 29.04 28.60 28.21 27.99 26.19 24.64 24.55
0.20 2.43 1.96 1.97 0.69 0.73 1.74 1.35 2.35 4.47 5.99 5.84 7.84 9.21 8.85 8.85 11.04 16.36 17.60 16.03 15.75 15.31 12.89 10.61 10.63 13.43 15.19 16.68 17.87 24.87 25.96 26.83 26.98 29.45 29.54 27.99 27.31 26.46 25.76 26.61 25.51 23.07 22.69
0.09 1.58 1.37 1.18 0.86 1.01 0.52 0.82 8.16 10.96 13.26 14.98 16.18 14.82 13.23 17.18 18.78 19.45 20.32 20.89 21.57 21.80 15.76 12.93 11.79 11.92 12.27 13.90 16.25 19.85 21.52 22.65 25.53 27.87 28.59 27.90 25.73 23.93 24.48 24.33 24.61 21.97 21.67
-1.81 0.07 0.40 0.28 -0.54 -0.57 -0.32 -0.63 -0.94 4.37 11.70 13.01 14.21 15.50 16.61 17.70 19.65 20.24 20.52 20.96 21.73 21.42 14.24 11.56 10.68 11.71 12.73 13.81 15.51 17.82 21.87 24.66 25.90 27.99 27.10 27.03 24.81 23.89 23.58 22.70 21.83 20.61 20.00
-5.57 -0.94 -1.15 -0.87 -0.68 -0.56 -0.29 0.55 1.29 0.45 0.65 2.90 9.93 12.86 15.62 16.47 17.60 19.37 20.03 20.07 14.36 15.07 12.99 11.07 9.82 11.48 12.46 13.07 15.20 17.50 21.38 24.02 24.81 26.75 26.88 25.61 24.18 23.88 22.41 20.64 20.18 18.77 19.05
-3.02 -0.87 -1.27 -1.30 -0.03 0.64 0.44 0.78 1.28 1.77 2.43 2.77 4.88 8.45 9.24 13.40 16.10 15.01 15.21 9.78 9.95 11.06 12.49 12.86 12.18 12.11 13.61 15.90 15.38 16.92 20.93 21.71 23.16 24.73 23.84 24.69 23.85 21.95 20.07 20.05 18.97 19.01 18.56
-2.85 -1.25 0.36 -2.04 -2.10 -1.45 -1.02 -0.47 0.65 0.90 1.57 1.96 2.07 2.84 4.46 9.26 2.81 3.14 4.52 5.69 6.25 7.16 7.91 7.72 11.77 16.68 16.93 18.24 17.49 21.05 21.78 22.36 22.69 23.39 23.34 21.87 21.49 21.36 19.16 18.24 17.63 16.77 16.36
-2.97 -2.21 -3.37 -4.04 -4.19 -3.23 -2.09 -1.57 -0.51 0.14 0.53 0.53 0.96 3.72 12.91 3.97 1.99 1.94 2.49 3.20 4.27 5.13 6.18 8.39 11.96 17.98 21.01 20.70 21.11 22.73 22.47 21.05 21.79 20.70 19.95 19.06 19.44 17.69 18.56 17.85 16.80 16.57 15.30
-6.38 -6.27 -5.15 -6.19 -4.11 -3.63 -3.49 -2.22 -1.46 -0.72 0.05 0.06 0.85 2.56 9.85 2.55 1.68 1.48 1.87 2.29 3.38 4.51 5.61 6.36 8.98 10.88 11.72 14.40 18.10 19.25 18.82 17.78 17.28 17.27 16.98 16.78 16.69 15.39 14.97 14.28 14.15 13.09 12.59
-6.95 -6.94 -6.37 -7.23 -5.75 -4.58 -4.49 -4.50 -3.00 -1.50 -0.58 0.26 0.84 0.95 1.33 1.31 1.38 1.22 1.14 1.96 2.30 2.75 3.50 4.28 5.06 6.47 9.56 11.23 12.55 13.37 13.04 13.09 14.39 15.18 14.25 13.66 13.20 12.82 12.76 11.75 11.33 11.25 10.95
-10.11 -10.61 -9.84 -10.71 -9.03 -6.46 -7.07 -5.89 -4.28 -2.72 -1.98 -1.06 -0.94 -0.47 0.11 0.39 0.68 1.08 1.56 2.19 2.43 2.53 3.09 3.56 4.60 4.62 6.03 8.57 9.89 10.72 11.28 12.09 13.13 13.32 13.45 12.28 11.31 11.59 11.14 10.42 10.18 10.11 9.59
-12.95 -12.29 -14.55 -14.27 -14.45 -10.78 -9.08 -7.98 -5.93 -5.54 -4.08 -2.68 -2.63 -2.23 -1.81 -0.97 -0.25 0.32 1.15 1.79 2.05 2.28 2.57 3.29 4.12 6.20 6.64 7.32 8.19 9.09 11.06 11.39 11.32 11.96 11.84 11.41 10.50 9.95 9.61 9.04 8.57 8.79 8.71
-11.09 -12.95 -16.38 -18.05 -16.76 -16.17 -15.39 -11.06 -9.90 -8.57 -8.09 -6.00 -5.06 -4.95 -4.34 -3.55 -2.05 -1.22 -0.54 0.26 0.65 1.63 2.13 2.85 3.41 4.20 6.07 9.07 9.96 10.94 11.41 12.04 10.06 10.42 10.40 9.63 8.30 8.06 8.24 7.83 7.87 7.58 7.07

GFSGL_sfc_wetblb_024.txt.gz
Wetbulb
27.85 28.07 27.90 27.89 28.24 27.61 26.61 26.59 26.47 25.67 25.67 26.20 26.34 26.65 26.50 26.66 27.00 26.21 25.99 26.73 27.24 28.29 29.22 29.55 29.88 30.60 31.15 31.43 30.40 32.26 34.39 34.02 31.74 34.45 29.06 28.91 28.93 31.60 31.66 33.76 33.11 32.47 34.85
27.94 27.28 26.85 27.11 26.18 25.44 26.01 26.17 25.50 26.53 27.50 25.38 25.76 25.41 25.71 25.63 26.14 25.87 25.70 25.57 25.34 26.19 27.56 28.44 28.78 31.40 29.25 29.73 29.99 30.21 29.66 32.07 32.56 31.22 33.45 26.37 28.10 30.36 32.39 30.97 31.08 31.47 30.97
27.55 26.34 25.65 25.25 24.46 24.18 24.83 25.27 25.18 25.17 25.78 25.25 25.17 24.49 24.64 24.71 24.83 25.40 25.65 25.83 26.10 26.61 27.09 27.37 27.93 28.60 29.21 30.30 30.86 30.54 30.83 32.01 31.07 30.74 31.30 26.74 27.92 28.69 27.96 29.06 30.10 29.14 29.10
25.68 25.22 24.19 23.86 23.80 23.51 23.90 23.76 23.66 23.92 23.65 23.85 23.87 24.08 24.56 24.43 24.44 24.43 24.43 24.60 25.11 26.54 27.36 27.83 28.20 27.97 28.16 28.93 30.82 31.50 31.50 30.74 30.98 30.00 30.18 30.37 26.32 27.32 29.71 28.75 26.99 27.17 27.08
25.24 24.86 24.24 24.28 24.01 23.48 23.11 23.35 23.57 23.83 23.70 23.38 22.90 22.72 22.85 23.48 24.06 23.72 24.47 24.17 24.14 24.44 25.42 26.58 27.92 28.99 30.91 31.21 29.71 30.26 31.55 31.35 31.12 30.26 29.72 29.62 26.30 25.00 27.47 28.42 28.82 27.93 27.46
23.26 21.93 22.87 22.61 22.48 22.42 22.41 22.18 21.56 20.90 20.35 20.25 19.96 19.79 19.51 21.90 25.16 26.41 26.14 24.06 24.08 23.51 22.98 24.10 25.12 26.40 28.49 31.69 32.66 33.55 33.32 30.44 30.80 30.88 30.61 29.77 30.02 27.95 29.32 29.27 28.03 26.65 24.93
19.64 18.65 18.77 19.63 19.36 19.62 18.57 17.79 16.98 16.20 16.53 16.09 16.33 16.68 16.53 17.39 21.90 23.33 23.92 22.37 21.91 21.66 22.14 22.70 23.10 24.79 26.10 26.62 29.29 31.30 31.61 33.60 35.97 32.56 30.68 30.84 30.89 31.63 29.95 28.11 27.47 29.03 28.89
18.27 15.71 16.18 17.42 14.99 15.23 14.42 13.46 13.26 13.39 12.78 12.54 12.54 12.53 12.60 14.41 18.73 19.54 19.76 17.86 17.35 17.94 19.08 20.74 21.65 22.02 22.82 23.43 23.79 24.78 26.78 28.29 29.31 31.50 32.98 33.26 33.34 33.61 31.16 30.22 30.75 29.38 30.87
17.32 17.30 15.68 13.64 10.82 11.54 9.01 9.55 10.15 9.49 9.00 8.48 10.12 9.28 8.27 8.87 14.64 16.53 17.10 14.46 14.78 14.98 16.85 17.43 17.99 18.50 21.57 24.03 21.67 21.02 22.33 24.83 30.42 33.51 34.73 35.67 36.93 37.78 36.18 31.21 28.54 27.64 26.15
15.78 14.46 13.36 11.83 6.45 7.35 7.88 6.87 7.54 6.84 7.85 8.13 7.40 7.30 6.91 5.83 12.04 14.69 15.77 13.16 11.35 12.79 14.45 16.50 19.07 19.13 21.85 23.32 20.52 19.73 18.99 21.29 24.19 26.96 28.66 30.99 34.35 34.45 36.71 34.73 30.47 27.72 27.10
12.28 10.99 9.42 9.01 6.44 5.65 5.28 5.86 4.79 3.96 5.17 3.30 4.00 4.79 5.23 6.53 7.12 13.86 16.14 14.06 12.80 11.54 11.92 13.24 15.48 18.73 19.71 20.90 22.24 20.09 21.62 23.97 25.16 26.12 27.49 28.08 28.71 30.36 31.72 34.42 33.86 30.40 28.06
7.58 5.91 4.59 2.37 3.25 5.48 1.57 2.37 2.23 1.50 0.62 0.77 1.72 3.07 5.36 7.03 10.41 12.91 15.68 17.29 17.73 13.60 12.52 13.73 14.06 17.92 19.31 20.48 20.32 21.41 23.51 24.28 23.87 25.91 27.16 27.09 27.71 28.02 29.36 31.18 33.03 32.29 32.26
-0.37 -3.62 -2.80 -0.01 2.61 3.07 0.30 0.59 0.12 0.24 -0.39 0.13 1.35 1.41 2.74 6.21 7.40 13.24 15.87 17.10 17.63 14.28 14.04 15.58 19.57 20.89 21.51 20.41 19.94 20.08 18.94 19.28 20.38 21.89 24.85 27.00 28.12 29.40 29.74 29.79 31.01 32.74 31.57
-10.19 -3.73 0.24 -0.18 0.59 0.30 2.37 2.53 0.48 -0.81 -0.52 0.69 0.72 1.79 4.41 7.98 10.49 12.51 12.74 12.96 16.08 16.05 16.18 14.31 16.03 18.54 20.08 19.45 16.92 17.59 16.96 16.94 17.30 19.08 23.31 27.38 29.36 28.94 28.38 29.20 28.82 30.11 28.83
-5.17 -0.31 0.15 -0.22 -2.52 0.66 1.86 1.43 2.03 4.47 5.92 6.09 8.52 10.19 9.77 9.05 11.19 17.25 18.41 16.98 17.64 19.25 20.03 18.81 14.57 9.23 8.86 9.14 10.11 13.43 16.13 16.13 16.13 19.30 23.53 25.59 27.30 27.65 27.52 28.08 28.21 28.15 25.73
-3.08 -0.10 0.11 0.35 0.33 0.87 0.19 0.25 7.81 11.00 13.00 14.89 16.38 14.91 13.29 16.95 18.54 20.04 20.40 20.88 21.79 22.76 18.49 16.49 15.87 15.13 13.81 13.13 11.79 11.82 12.90 14.04 16.38 19.20 24.89 24.25 24.80 26.83 26.73 27.38 26.87 26.53 22.84
-9.69 -2.38 -1.34 -0.54 -1.24 -1.34 -0.81 -1.51 -2.51 3.15 10.73 11.69 13.15 14.65 15.58 16.62 17.01 17.96 19.24 19.66 18.92 17.81 11.67 10.69 11.38 12.51 13.30 13.13 12.54 11.81 12.02 14.79 17.45 19.23 21.68 21.63 23.67 26.39 25.05 25.00 24.13 24.43 22.34
-12.42 -4.81 -4.14 -2.87 -2.57 -2.05 -2.04 -1.16 -1.00 -1.85 -1.73 0.44 7.45 10.79 12.73 13.80 15.45 17.05 15.93 13.56 2.97 5.94 6.08 7.58 7.81 8.57 11.79 12.80 12.55 12.12 13.11 14.64 16.59 18.61 22.37 24.35 25.91 24.98 23.41 24.08 23.00 22.71 21.31
-9.69 -6.56 -6.98 -3.85 -2.00 -1.32 -1.97 -1.84 -1.54 -0.94 -0.46 -0.20 1.44 5.04 5.90 11.23 13.52 11.55 11.41 2.66 2.00 2.19 3.76 4.56 6.15 6.96 9.02 10.79 13.29 13.24 12.80 13.01 15.34 17.94 22.08 23.70 25.80 24.37 24.29 23.61 23.11 21.64 21.13
-12.77 -6.15 -2.80 -8.01 -4.20 -4.65 -3.54 -3.75 -2.89 -2.43 -1.73 -1.29 -0.90 0.16 2.07 6.53 0.22 0.69 1.41 1.49 1.28 1.31 2.38 2.86 4.22 6.02 9.86 12.57 15.61 15.62 15.81 13.99 15.26 17.71 21.04 22.84 23.71 24.29 24.17 22.61 21.62 20.14 20.44
-13.73 -10.54 -6.44 -8.22 -8.53 -7.14 -5.91 -5.33 -4.05 -3.48 -3.13 -2.42 -1.15 1.78 12.61 2.26 -0.01 0.23 0.81 1.10 0.90 0.78 1.11 1.68 2.66 4.55 6.80 8.85 11.23 17.17 17.80 18.66 20.79 21.71 22.95 23.10 22.51 21.94 23.03 22.16 20.68 20.11 19.94
-15.34 -15.96 -14.50 -9.99 -6.98 -7.58 -8.48 -5.71 -5.67 -5.25 -4.02 -3.26 -1.45 0.26 8.64 0.05 -0.35 -0.01 0.83 1.59 2.12 2.74 3.12 2.59 2.92 4.67 6.00 7.39 8.59 10.02 12.61 14.03 16.05 17.30 17.89 18.33 18.72 18.82 19.17 18.47 18.12 17.69 16.34
-14.30 -13.78 -8.98 -7.49 -8.48 -9.27 -9.17 -11.47 -10.75 -7.62 -6.19 -5.55 -3.85 -2.90 -2.34 -2.41 -1.98 -0.69 0.06 1.52 2.40 2.62 3.57 3.61 3.54 4.44 6.95 8.12 9.64 9.98 9.28 9.68 12.09 14.74 14.09 14.07 14.42 14.68 15.29 14.83 14.30 13.62 12.84
-13.75 -10.26 -6.52 -6.72 -12.35 -12.38 -12.43 -12.66 -11.47 -9.74 -8.88 -8.36 -9.00 -6.68 -4.95 -4.64 -4.35 -3.20 -1.58 0.30 1.29 2.20 3.39 3.44 4.23 4.77 5.88 7.82 9.03 9.48 10.69 11.61 11.92 12.44 12.52 11.44 10.93 11.81 12.12 12.24 12.54 12.40 12.20
-10.16 -7.04 -6.83 -9.36 -16.45 -15.75 -17.18 -17.22 -13.67 -16.21 -15.00 -12.32 -9.78 -8.90 -7.82 -7.16 -6.36 -5.38 -3.93 -2.32 -0.55 0.22 0.84 2.01 3.82 4.44 6.34 8.71 9.44 9.26 10.28 10.17 10.39 11.77 11.74 11.42 10.54 10.48 10.36 10.13 10.31 10.44 10.49
-5.96 -6.86 -7.99 -12.15 -15.58 -18.80 -21.72 -20.33 -18.23 -16.08 -15.67 -12.09 -11.38 -11.17 -9.92 -8.72 -7.73 -6.79 -5.72 -5.00 -3.64 -2.12 -0.78 0.72 1.35 2.45 4.36 9.19 10.37 14.14 13.84 13.38 10.24 10.46 10.36 10.05 9.11 8.91 9.19 8.76 8.67 8.31 7.99

GFSGL_sfc_wetblb_027.txt.gz
Wetbulb
26.48 26.13 26.00 25.64 25.25 24.93 24.70 24.18 24.15 24.43 24.82 25.18 25.20 24.96 24.77 24.50 24.62 23.88 23.97 24.51 23.97 24.81 25.20 24.84 26.26 27.95 28.45 29.22 29.14 29.84 31.14 31.45 30.24 32.82 33.71 30.50 28.97 29.48 30.73 32.98 34.01 34.41 35.54
26.37 25.64 26.14 25.58 24.85 24.15 23.89 24.16 24.34 23.94 24.56 24.81 24.90 24.46 24.16 24.05 23.90 23.44 23.16 23.60 23.19 23.53 24.40 24.93 25.08 27.13 26.12 27.21 27.63 28.16 29.03 30.53 29.88 28.92 31.83 31.99 28.48 29.82 29.86 29.98 31.92 33.12 33.08
26.51 25.68 25.13 24.56 23.70 23.22 23.25 23.72 23.91 23.57 23.30 23.34 23.94 23.16 23.10 23.25 23.13 23.06 23.05 22.95 22.88 23.40 23.95 24.08 24.75 25.34 25.53 26.34 26.71 27.65 28.23 30.04 30.53 29.58 29.26 30.79 29.02 27.26 28.96 29.49 29.39 30.66 31.13
25.04 24.56 23.82 23.47 23.32 22.73 22.88 22.57 22.50 22.59 21.95 21.42 21.26 21.29 21.41 21.68 22.08 22.28 22.68 22.63 22.93 23.73 24.14 24.19 24.17 24.23 24.85 25.77 26.39 26.84 27.70 28.13 28.95 28.61 28.67 29.16 29.71 28.86 27.66 27.57 26.97 28.77 29.02
23.96 23.94 22.82 22.82 22.48 21.93 21.35 20.92 20.30 19.82 19.41 19.03 18.69 18.60 18.92 19.41 21.11 20.93 21.56 21.24 21.56 22.19 23.42 24.06 24.09 24.55 27.09 27.50 26.29 26.01 27.07 26.99 27.35 27.37 27.51 28.13 28.63 25.04 27.05 28.37 28.60 29.85 28.74
22.40 20.68 20.93 20.75 20.67 19.85 18.76 17.80 17.50 17.16 16.45 16.24 15.88 15.56 15.07 17.46 20.40 21.53 21.42 19.40 19.73 19.69 19.69 21.30 22.58 23.08 24.38 26.80 27.75 28.76 28.64 26.52 26.90 26.92 27.09 26.73 27.73 29.06 28.64 28.66 28.03 27.27 25.79
18.63 16.65 17.05 17.86 16.53 16.16 15.56 15.04 14.57 13.56 13.82 13.12 12.98 12.93 12.28 12.76 17.79 19.92 19.95 17.64 16.63 16.08 16.54 17.48 18.48 20.42 20.99 21.83 24.29 26.17 26.58 28.10 29.25 27.00 26.54 27.20 27.99 29.47 30.06 28.08 28.88 29.33 28.99
16.97 14.87 15.27 15.62 13.12 13.23 12.48 11.53 11.41 11.42 10.65 10.26 10.21 9.92 10.28 11.78 16.33 17.43 18.07 16.08 14.99 14.87 15.06 15.67 15.90 16.28 17.60 18.72 19.08 18.84 20.14 21.34 22.62 23.83 25.19 26.62 28.34 30.56 31.28 31.64 30.24 30.75 30.94
16.76 16.64 14.75 12.87 9.73 10.30 6.73 7.94 8.84 8.24 7.78 6.95 9.09 7.73 6.57 7.21 13.42 15.98 16.33 13.47 13.29 13.20 14.49 15.15 15.55 15.45 18.10 20.69 19.00 17.03 17.09 18.59 23.23 25.57 27.01 28.81 30.36 32.75 33.33 32.01 29.99 29.26 27.86
15.99 15.02 13.25 11.61 4.84 4.87 7.00 6.06 6.70 5.26 7.22 7.48 6.88 6.29 5.81 4.54 11.14 14.52 15.59 13.18 11.00 12.32 13.65 14.91 17.43 17.28 19.87 21.25 18.16 16.10 14.13 16.10 18.30 19.47 21.05 23.38 25.74 26.46 30.96 31.98 30.90 28.79 27.82
12.39 11.17 9.66 8.85 4.75 4.39 3.78 4.80 3.75 2.94 4.60 2.21 3.14 3.63 4.03 5.54 6.48 14.01 16.25 14.17 12.96 12.18 12.75 13.90 15.56 19.06 20.19 21.02 21.62 17.80 16.78 18.73 19.05 18.57 18.61 20.37 22.38 24.20 26.27 28.62 30.06 30.34 29.50
9.28 6.94 4.87 -0.22 1.03 3.57 -5.05 -0.43 -1.09 -1.05 -1.13 -0.74 -0.30 1.03 4.02 6.13 10.18 13.09 16.18 17.99 18.46 14.50 13.30 14.38 14.94 19.14 20.42 21.64 21.71 22.88 24.08 23.74 19.57 16.95 15.88 16.92 18.95 21.29 25.40 27.72 29.48 30.12 31.90
3.39 -2.57 -5.69 -2.04 0.70 1.11 -4.15 -0.83 -0.94 -2.62 -2.72 -0.73 0.78 0.79 2.45 6.46 7.52 13.51 16.46 17.99 18.84 16.44 16.41 18.00 21.64 22.52 23.09 21.99 21.56 21.72 20.00 16.81 14.33 12.18 11.91 13.67 16.80 20.80 23.93 27.62 28.95 29.96 30.04
-0.89 -2.88 -0.98 -2.69 -1.97 -2.03 1.67 2.13 -0.58 -1.77 -1.32 0.23 0.43 1.40 4.82 8.93 11.32 12.70 12.65 13.71 17.58 18.50 19.09 18.02 19.18 21.06 22.28 21.50 18.42 18.84 17.32 16.55 15.09 13.68 13.47 14.97 16.66 17.39 19.14 22.55 27.35 27.31 27.23
-1.02 0.66 -1.32 -2.68 -3.92 -1.46 0.36 0.53 1.63 3.40 5.02 5.94 9.14 10.23 9.53 8.90 11.16 17.74 18.61 16.94 17.29 19.08 19.58 16.83 14.72 15.33 15.53 16.15 13.32 12.21 12.59 12.69 11.58 12.38 12.83 13.88 14.74 15.50 16.70 20.81 26.89 27.17 25.79
-0.82 0.45 -1.61 -1.20 -1.45 -0.01 -0.53 -0.58 6.85 11.02 13.44 14.97 16.04 14.52 13.02 16.12 17.97 18.89 19.44 20.54 20.43 19.73 12.42 6.66 6.01 7.46 8.74 10.11 10.16 11.55 14.50 14.29 13.49 13.78 12.65 12.91 13.64 15.12 18.04 21.46 27.27 26.40 25.33
-4.80 -2.31 -3.05 -1.23 -2.45 -3.17 -2.91 -3.15 -4.23 1.67 10.20 10.46 12.16 13.65 14.75 15.71 16.50 18.07 18.12 17.82 14.53 12.62 0.28 1.73 3.14 4.98 5.72 6.72 7.11 8.00 9.83 13.87 15.36 13.83 13.58 14.15 16.17 16.90 17.87 22.88 23.24 25.20 25.77
-5.52 -4.68 -7.54 -4.61 -6.52 -7.68 -5.64 -4.17 -3.66 -4.79 -4.30 -2.03 5.22 9.37 12.26 13.62 15.80 15.21 14.80 9.10 -0.40 1.68 -0.36 0.21 0.82 2.44 3.37 4.45 5.77 8.70 11.50 12.97 13.46 13.40 14.06 15.28 17.28 17.48 21.62 23.04 23.75 23.74 24.16
-7.85 -5.08 -5.43 -8.64 -7.90 -5.38 -5.34 -4.44 -4.23 -3.65 -3.87 -3.37 -1.47 3.34 4.63 10.23 12.57 11.11 10.53 -3.01 -1.16 -1.32 -0.43 -0.26 0.57 1.15 2.19 4.06 5.56 7.74 9.85 13.48 13.52 12.81 13.21 14.63 16.55 17.58 22.60 23.95 23.15 23.15 23.70
-11.48 -7.04 -6.39 -10.76 -10.85 -10.70 -6.93 -7.22 -5.02 -4.99 -5.13 -4.88 -3.69 -2.62 0.13 4.25 -1.65 -1.85 -1.01 -0.67 -0.61 -0.46 0.41 0.36 0.67 1.32 1.72 3.40 4.96 6.81 8.52 11.19 14.43 12.74 13.26 15.20 17.07 19.66 20.63 23.02 24.02 22.72 22.74
-14.10 -15.57 -8.73 -12.86 -16.23 -14.76 -12.84 -10.32 -5.79 -7.10 -6.98 -6.58 -4.79 -0.99 10.96 -0.65 -3.54 -3.36 -2.55 -1.08 -0.25 0.16 0.86 1.64 1.78 2.03 3.07 4.53 5.72 6.90 8.09 9.32 11.70 14.90 17.73 17.87 19.70 20.28 22.40 22.13 21.27 22.50 21.94
-14.54 -15.06 -19.82 -18.43 -14.35 -12.74 -13.27 -6.70 -6.59 -9.65 -8.76 -7.07 -5.16 -3.14 6.42 -3.70 -4.98 -4.88 -3.67 -2.93 -1.46 0.95 2.52 2.67 2.59 3.28 4.56 5.35 6.42 6.88 7.06 8.51 9.63 10.81 12.69 13.86 15.46 17.62 18.57 19.54 19.43 19.94 19.31
-13.77 -16.71 -17.79 -17.65 -15.01 -12.25 -9.29 -9.10 -10.31 -12.64 -11.92 -11.06 -9.62 -7.37 -7.23 -7.52 -7.45 -6.75 -6.02 -5.06 -3.46 -1.77 0.56 1.84 2.14 3.13 4.97 6.25 9.33 9.50 7.94 8.10 9.73 10.62 10.80 10.39 9.60 7.53 8.27 10.99 12.03 13.79 14.02
-17.23 -16.35 -14.18 -15.40 -13.91 -10.95 -9.20 -8.31 -11.47 -11.51 -12.76 -13.15 -15.95 -14.55 -9.98 -9.34 -9.91 -9.01 -7.61 -6.43 -5.21 -4.13 -2.18 -0.34 0.85 2.03 2.50 4.53 8.90 11.39 11.12 11.31 10.46 10.18 10.07 9.66 9.64 10.90 11.21 10.55 11.02 11.39 12.40
-20.06 -16.87 -15.17 -13.82 -14.05 -9.99 -10.23 -13.30 -13.10 -18.54 -18.37 -16.20 -14.96 -16.76 -12.57 -12.04 -10.50 -10.18 -8.97 -7.87 -7.06 -6.53 -5.32 -3.37 -0.98 -0.42 0.74 1.89 5.73 10.55 13.43 11.21 9.97 10.37 9.52 9.50 8.50 8.83 9.52 9.73 10.63 11.12 11.07
-8.84 -12.23 -13.25 -11.88 -10.12 -9.05 -12.62 -14.21 -14.74 -16.97 -17.60 -15.49 -15.88 -16.14 -15.18 -13.29 -11.61 -11.12 -10.28 -9.72 -8.79 -8.60 -7.81 -4.90 -3.71 -4.24 -2.73 1.17 3.34 12.00 13.13 16.10 10.36 9.89 9.21 8.62 7.82 7.85 8.34 7.71 8.12 8.51 8.58

GFSGL_sfc_wetblb_030.txt.gz
Wetbulb
25.19 24.83 24.95 24.40 23.73 23.78 23.54 23.14 23.18 23.31 23.50 23.81 24.09 23.60 23.22 22.77 22.61 21.60 21.48 22.04 21.73 22.09 22.39 22.71 23.40 24.11 24.66 25.28 26.52 27.60 27.54 27.64 26.87 28.88 31.49 31.86 31.23 32.12 32.95 31.27 32.40 32.73 33.99
25.32 24.54 25.23 24.52 24.23 23.32 22.71 22.93 23.21 22.90 23.48 23.36 23.54 22.82 22.35 22.21 22.09 21.48 21.04 21.29 21.05 21.17 21.80 22.24 22.42 24.92 23.42 23.97 24.42 24.75 25.42 26.36 26.23 24.66 27.75 28.83 28.65 30.02 31.23 31.09 31.49 32.41 32.14
25.00 24.71 24.55 24.17 23.19 22.56 22.39 22.69 22.81 22.22 21.63 21.55 20.91 20.00 19.99 20.25 20.25 20.41 20.67 21.23 21.53 21.83 22.13 22.05 22.28 22.49 22.30 23.09 23.48 23.84 24.58 26.33 26.18 25.86 25.76 28.32 28.95 28.08 28.19 28.68 29.84 31.02 31.69
24.97 24.24 23.57 23.11 22.55 21.66 21.79 21.36 20.45 20.07 18.73 18.13 18.19 18.19 18.26 18.30 18.75 19.77 20.34 19.80 19.57 20.26 20.92 21.38 21.81 22.10 22.16 22.08 22.60 22.98 24.79 24.91 25.17 24.93 25.31 26.08 27.28 28.68 26.37 27.19 27.94 28.06 29.77
23.30 23.35 22.94 22.63 21.48 20.64 19.33 18.39 17.86 17.76 17.33 16.96 16.53 16.15 16.42 16.77 19.42 18.74 18.99 18.67 18.31 18.20 18.73 19.23 19.86 20.91 23.62 24.25 23.36 23.00 23.23 22.58 22.79 22.99 24.06 25.37 25.51 25.98 26.41 27.44 26.87 28.08 29.04
22.97 22.42 21.23 20.39 19.87 18.08 17.36 16.71 16.33 15.69 14.71 14.60 14.11 13.46 12.77 15.59 18.62 20.40 20.54 18.06 17.42 16.44 15.57 16.51 17.19 17.75 19.38 21.83 23.18 24.80 25.30 23.01 21.63 22.24 24.14 24.31 25.29 26.54 27.99 27.69 27.82 27.21 25.82
19.74 16.92 17.08 16.80 15.85 15.26 14.75 14.25 13.43 12.29 12.43 11.69 11.56 11.54 10.90 11.52 17.28 19.67 19.91 17.20 16.21 15.59 14.94 14.94 15.44 17.11 16.84 17.00 18.70 20.72 21.31 22.87 24.90 23.03 21.61 22.02 22.69 24.90 26.49 27.00 28.12 27.61 27.56
17.53 15.11 15.00 14.91 12.73 12.76 11.79 10.74 10.55 10.41 9.70 9.31 9.34 8.98 9.63 10.88 16.27 17.71 18.58 16.31 14.61 14.34 14.35 14.48 14.37 14.69 15.78 16.69 16.69 16.70 17.80 18.82 19.82 20.42 19.64 19.78 20.72 21.81 22.44 23.79 25.21 26.48 28.97
16.55 16.37 14.38 12.38 9.55 9.77 5.91 7.19 8.06 7.49 7.19 6.02 8.86 6.60 6.06 6.71 13.44 16.47 16.72 14.50 13.95 13.43 14.29 14.64 14.73 14.46 17.21 19.86 17.91 16.88 17.60 18.40 21.68 23.30 24.09 25.27 26.34 26.95 27.25 24.73 22.98 24.06 23.28
16.10 16.09 13.44 11.31 5.64 4.73 7.07 5.35 5.70 3.13 7.12 7.36 7.02 6.08 5.49 4.23 11.04 14.81 16.22 14.40 11.90 12.68 13.46 14.74 17.62 17.86 20.40 21.69 18.58 17.24 15.06 16.01 16.96 16.41 17.82 19.87 21.95 21.27 24.25 22.76 21.74 19.39 20.81
13.60 11.41 9.88 9.05 4.96 4.14 2.86 3.68 0.72 0.57 4.15 0.96 2.59 3.26 3.31 4.85 5.72 14.14 17.07 15.70 14.12 13.59 14.64 15.16 16.10 19.75 20.97 21.98 22.70 19.14 17.78 19.47 19.46 18.94 18.74 19.06 19.58 19.58 19.79 21.06 22.21 22.13 20.41
9.42 8.59 7.26 5.08 2.74 4.70 -5.73 -3.86 -4.54 -3.80 -4.01 -3.11 -2.12 0.25 3.95 6.08 10.13 13.89 17.61 19.19 19.48 15.47 14.89 16.24 16.76 20.88 22.56 24.10 24.09 25.19 26.06 24.53 19.48 16.20 14.81 14.41 14.78 15.40 17.23 18.83 20.36 22.23 23.83
5.49 4.57 1.39 1.53 4.11 3.83 -3.70 -1.30 -2.67 -6.07 -5.63 -2.22 0.66 0.83 2.87 6.75 7.84 15.23 17.63 18.89 20.02 17.71 18.02 19.62 22.60 22.95 23.34 22.36 22.05 22.93 21.63 19.67 17.53 15.69 14.83 15.19 16.05 16.87 18.08 17.73 18.70 19.29 20.77
-2.07 2.56 3.61 2.30 2.45 1.83 2.95 2.36 -4.49 -4.99 -2.72 -0.82 -0.35 0.72 3.25 8.99 10.90 11.72 13.19 16.73 18.91 17.80 19.51 18.83 18.05 17.17 17.59 17.47 14.89 16.63 16.13 15.43 14.53 13.84 13.91 15.45 16.66 15.97 15.12 15.89 14.16 15.00 14.79
-0.58 1.77 3.01 2.48 1.33 1.13 1.30 1.28 1.04 2.06 2.85 0.41 4.00 8.79 9.26 8.30 10.77 17.97 18.36 16.83 17.58 18.53 15.35 9.66 5.20 5.03 5.82 7.52 8.93 10.04 10.67 10.65 11.04 12.55 12.53 12.30 12.60 13.05 13.24 14.84 14.72 13.97 12.37
1.16 3.35 3.03 2.14 1.21 1.35 0.74 -0.13 6.90 11.49 14.06 15.81 17.02 15.17 12.20 15.73 17.97 18.78 19.93 19.49 18.77 16.27 5.26 -1.41 -0.31 1.35 2.47 3.59 3.86 5.07 6.67 7.48 9.09 10.80 12.23 12.74 11.82 12.47 12.60 13.50 14.25 13.75 13.54
-2.74 2.31 1.31 1.02 0.07 -0.62 -1.54 -3.21 -4.97 0.56 8.75 10.58 12.17 13.36 14.33 15.71 16.40 17.95 17.64 17.39 12.53 9.85 -6.86 -3.16 -1.99 -0.76 0.38 1.79 2.51 3.53 3.98 6.52 9.45 11.01 11.90 12.66 13.00 13.03 13.01 13.43 14.86 15.60 15.18
-2.69 0.13 -1.68 -1.72 -2.71 -4.08 -4.55 -4.80 -4.77 -6.36 -7.15 -4.19 3.40 7.87 11.63 12.96 14.89 15.42 14.59 8.03 -2.54 -1.65 -11.77 -3.31 -2.33 -0.86 0.04 0.61 1.56 2.20 3.68 5.46 6.89 9.09 12.16 12.45 12.14 12.38 12.92 13.96 15.88 17.50 21.15
-3.18 -2.89 -3.75 -4.03 -4.30 -4.35 -4.70 -4.72 -6.42 -6.67 -6.61 -6.45 -4.07 1.08 2.72 9.13 11.44 10.08 8.95 -11.44 -5.75 -3.51 -2.27 -1.89 -0.53 0.24 0.68 1.27 1.85 2.69 4.06 5.16 7.15 9.10 11.87 13.21 12.55 12.62 12.73 14.69 16.29 18.99 22.12
-4.80 -2.52 -4.14 -9.29 -9.75 -10.36 -7.93 -8.52 -7.33 -8.15 -8.54 -8.88 -6.52 -4.53 -3.61 -3.43 -11.59 -10.82 -11.67 -13.17 -9.84 -4.29 -2.24 -1.40 -0.28 1.00 1.44 1.71 2.21 3.26 4.34 5.83 6.74 8.02 9.44 11.36 14.67 14.28 14.20 15.24 18.16 19.02 20.75
-9.32 -12.14 -8.89 -13.80 -14.27 -13.91 -13.58 -11.96 -9.20 -11.25 -10.17 -9.88 -6.42 -3.05 8.35 -1.39 -9.21 -11.36 -8.81 -8.50 -7.93 -5.44 -4.01 -1.94 -0.65 0.28 1.54 2.39 3.19 3.50 4.95 6.30 7.42 8.12 8.88 9.57 11.43 12.36 15.68 18.66 20.58 21.06 21.37
-15.50 -13.09 -15.49 -14.75 -13.94 -13.97 -13.97 -11.38 -10.86 -11.37 -10.54 -7.61 -5.28 -5.01 4.83 -6.96 -8.40 -9.47 -8.61 -8.80 -7.70 -6.78 -4.75 -3.51 -2.22 -0.29 1.20 2.33 3.11 3.30 5.06 6.96 7.70 8.11 8.07 8.76 10.07 10.93 11.85 13.78 15.55 18.02 18.34
-12.76 -14.43 -17.02 -19.38 -16.99 -14.88 -15.12 -15.89 -14.64 -12.60 -9.08 -7.92 -9.36 -8.95 -11.24 -13.33 -13.61 -12.31 -10.47 -9.57 -8.69 -7.28 -6.23 -5.81 -4.89 -3.40 -1.06 1.22 2.15 3.99 5.36 8.03 9.78 8.87 7.40 7.70 8.87 9.75 10.32 9.75 11.08 11.92 12.55
-14.65 -14.19 -14.05 -16.05 -18.61 -16.48 -14.61 -14.11 -11.93 -8.40 -7.86 -9.31 -15.65 -15.71 -13.03 -13.17 -15.98 -14.10 -12.45 -10.90 -9.58 -8.76 -7.85 -7.47 -6.20 -6.29 -4.28 -3.32 -0.59 2.22 4.36 8.59 11.24 8.81 8.07 7.56 7.92 8.86 9.28 8.98 11.04 11.90 12.63
-21.46 -18.34 -17.69 -14.65 -14.54 -11.43 -12.03 -10.79 -8.59 -8.91 -9.89 -13.42 -13.17 -15.85 -16.98 -16.30 -14.95 -14.69 -13.38 -13.50 -11.57 -10.60 -9.51 -8.65 -7.05 -6.99 -6.48 -5.97 -5.18 -2.79 0.92 8.83 8.78 9.36 8.12 7.71 7.26 7.74 8.01 8.41 9.13 10.39 10.93
-6.92 -8.56 -8.31 -9.01 -10.67 -11.06 -10.06 -8.41 -7.58 -8.47 -11.26 -12.70 -14.39 -16.54 -17.55 -16.09 -14.69 -14.16 -13.47 -13.55 -12.13 -11.27 -11.45 -9.58 -8.18 -9.50 -8.34 -5.56 -4.44 1.08 5.44 12.94 11.18 8.40 7.13 7.53 6.65 6.92 7.38 7.03 7.01 7.76 7.97

GFSGL_sfc_wetblb_033.txt.gz
Wetbulb
27.12 26.64 26.70 26.39 26.17 26.29 25.87 25.57 25.44 25.50 25.09 24.84 24.45 24.26 23.98 23.73 23.88 23.46 23.25 23.95 23.04 23.59 24.35 24.30 24.16 25.36 25.38 26.12 26.69 26.77 26.45 26.89 24.99 27.66 30.65 32.03 32.03 32.92 34.41 36.16 36.70 36.30 37.68
26.67 26.49 26.75 26.43 26.16 25.34 24.88 24.92 25.04 23.93 24.00 23.55 22.73 22.36 22.13 21.97 22.08 21.60 21.29 21.99 22.00 22.04 22.62 22.78 22.85 24.15 23.59 24.56 24.89 24.65 25.31 26.33 25.36 23.57 26.87 28.49 29.58 31.64 32.69 33.01 33.54 34.49 35.26
26.41 26.39 26.01 25.95 25.23 24.59 24.21 23.99 23.33 22.37 21.68 21.08 20.77 20.07 19.93 19.97 20.01 20.59 21.31 21.03 20.89 20.75 20.93 20.73 20.88 21.34 21.42 22.81 23.02 23.43 24.52 24.87 25.55 24.47 23.52 27.33 28.87 30.39 30.48 31.72 32.28 33.26 33.83
26.15 25.95 25.64 25.16 24.58 23.83 23.30 22.01 20.97 20.60 19.74 19.23 19.13 18.76 18.61 18.72 19.45 20.58 20.54 20.20 20.35 20.57 20.45 20.23 19.65 19.24 19.11 19.87 20.50 21.45 23.03 23.70 24.25 23.62 23.43 23.79 25.81 28.38 29.69 28.94 28.99 32.00 31.52
25.83 25.50 25.34 25.20 23.44 22.41 20.59 19.28 19.14 18.63 18.10 17.62 17.41 16.57 16.88 17.33 20.15 19.89 20.31 19.99 19.12 18.77 18.84 18.74 19.07 19.48 20.53 20.75 20.46 20.52 20.93 20.56 21.05 21.80 22.22 23.03 23.47 23.70 25.07 28.65 28.39 30.25 31.59
25.15 24.86 24.33 22.75 21.23 19.51 18.50 17.75 17.26 16.26 15.50 15.17 14.64 13.96 13.55 16.12 18.50 21.09 21.38 19.16 18.25 16.98 16.44 17.31 17.57 17.43 18.51 20.14 20.82 21.55 21.47 18.85 17.49 18.70 19.61 19.47 21.00 23.09 25.06 25.22 25.51 24.78 24.15
22.61 21.35 20.47 19.99 18.86 17.29 16.20 15.48 14.63 13.43 13.24 12.50 12.44 12.38 11.89 12.69 17.41 20.44 20.46 18.35 17.33 16.29 15.43 15.50 15.74 17.07 16.92 16.58 18.04 19.87 20.12 20.87 22.10 20.31 18.42 18.48 18.82 20.21 21.24 20.48 21.07 21.57 21.69
21.58 19.33 17.79 17.21 15.61 14.35 13.22 12.35 12.04 11.84 10.94 10.54 10.42 10.32 10.81 11.71 16.91 18.81 19.31 17.54 15.76 15.54 15.63 15.37 15.03 15.30 16.35 17.05 17.11 17.72 18.42 19.27 19.79 20.73 20.52 20.75 21.46 22.57 22.50 22.38 22.05 22.33 23.70
20.30 18.89 17.10 15.76 12.89 12.26 9.65 9.63 9.94 9.45 8.93 8.09 10.54 8.88 7.53 8.08 14.14 17.74 17.88 16.08 14.69 14.41 15.64 16.04 15.93 15.88 18.02 20.59 19.55 18.90 19.20 19.46 22.36 23.80 24.32 24.93 25.47 25.91 25.43 23.20 20.35 19.36 17.64
19.53 18.66 16.17 13.43 9.30 8.28 9.73 8.19 8.45 6.97 8.77 8.77 8.13 7.61 6.50 6.13 11.78 16.02 17.24 16.68 14.30 15.08 16.06 16.37 18.78 19.35 21.58 22.64 20.02 18.91 17.03 18.13 19.36 19.50 20.29 21.69 23.04 22.76 24.25 23.04 21.41 17.65 17.47
16.75 14.87 12.49 11.42 8.46 8.03 6.49 7.04 5.15 3.94 5.84 2.33 3.98 4.75 4.88 6.23 7.16 14.69 17.88 17.35 16.55 16.41 17.21 16.91 17.87 20.90 22.33 23.49 24.36 21.47 20.30 22.12 22.52 21.94 21.58 21.80 21.85 21.77 21.68 22.36 22.49 20.96 18.00
13.11 11.14 9.14 5.89 8.42 6.64 0.90 2.42 1.18 0.85 0.23 -0.17 0.09 2.34 5.91 7.45 11.05 14.73 18.16 20.22 20.62 17.71 17.11 18.23 18.55 22.33 24.34 23.49 21.97 22.15 22.78 22.50 20.91 19.71 18.89 18.33 18.49 18.96 20.14 20.93 21.44 21.67 22.10
9.04 5.77 3.49 3.30 4.88 4.21 -0.23 1.46 3.07 0.91 -0.01 0.72 2.79 3.32 4.99 8.47 9.62 15.10 17.78 19.16 20.47 19.05 19.22 20.41 21.25 19.54 19.27 16.84 17.11 18.94 17.60 15.47 15.09 14.03 14.18 15.35 17.44 19.26 20.29 20.32 20.95 20.79 20.58
4.13 4.08 3.33 2.18 3.28 2.30 5.64 4.48 1.98 1.46 1.12 1.43 1.38 2.30 4.38 6.61 9.99 13.05 13.56 16.18 19.54 19.54 17.90 13.39 13.36 12.10 12.63 12.72 10.25 11.77 11.63 12.16 11.54 10.79 11.54 14.04 15.99 15.93 15.67 17.18 16.11 16.80 15.89
3.48 4.36 3.99 2.50 2.06 3.96 4.32 4.83 4.66 4.56 3.24 -1.89 0.41 3.19 4.33 9.30 10.88 17.54 19.27 18.40 18.92 17.35 9.30 4.84 3.24 3.35 3.81 5.12 6.00 6.68 8.03 8.62 8.22 9.34 9.72 10.40 11.80 13.36 14.31 15.87 15.30 14.84 13.25
3.71 3.47 3.23 3.66 3.62 3.90 3.26 3.04 8.41 12.33 14.46 16.40 17.88 17.31 14.47 16.73 17.75 19.17 19.60 20.39 19.34 16.39 3.78 -1.49 -0.50 0.87 1.16 2.24 2.77 3.62 5.31 5.74 7.21 7.90 8.42 9.39 10.58 11.80 12.89 15.01 15.53 14.38 13.13
1.36 3.10 3.20 3.66 2.82 2.00 1.06 0.13 -1.22 2.55 8.55 11.20 13.90 15.71 15.73 15.67 17.47 17.57 18.67 17.85 12.82 9.41 -1.85 -1.87 -1.54 -0.30 0.61 1.94 2.48 3.06 3.13 5.08 6.52 6.94 7.88 8.72 10.14 11.98 13.19 13.31 13.68 14.00 13.89
-4.08 0.86 0.60 1.26 0.47 -0.59 -0.88 -1.27 -2.60 -4.28 -5.48 -3.05 3.22 7.87 11.10 14.10 14.34 16.11 15.05 8.74 -2.48 -1.67 -4.06 -3.24 -2.13 -0.54 0.78 1.53 2.40 2.75 3.47 4.46 5.52 6.91 7.93 8.88 10.41 11.79 12.87 12.71 13.25 13.15 14.09
-4.70 -3.24 -2.57 -3.12 -3.21 -2.46 -2.13 -2.58 -3.97 -4.76 -4.93 -5.79 -4.25 0.25 3.26 8.01 11.49 11.27 9.09 -3.84 -6.95 -4.88 -3.33 -2.69 -1.17 -0.47 0.65 1.72 2.43 2.82 3.43 3.93 4.98 6.28 7.85 8.43 9.66 10.68 11.25 13.69 14.13 13.81 14.39
-9.08 -1.93 -2.58 -5.15 -5.31 -5.47 -4.51 -5.24 -4.85 -5.88 -6.25 -6.82 -5.87 -4.81 -4.91 -4.67 -4.74 -5.90 -7.01 -8.07 -7.92 -6.69 -4.84 -4.37 -2.85 -1.44 -0.51 0.63 1.79 2.53 3.26 3.73 5.00 6.93 8.21 8.84 9.45 10.10 10.39 11.52 13.36 14.89 17.43
-10.96 -10.49 -6.92 -10.24 -11.78 -10.31 -8.21 -7.83 -6.52 -8.01 -8.25 -8.08 -7.13 -3.01 6.28 4.91 -1.95 -6.88 -8.30 -7.97 -8.51 -7.69 -6.25 -5.62 -4.57 -3.50 -2.25 -0.70 0.40 1.49 1.53 2.95 4.84 6.78 8.90 8.90 8.47 8.18 10.07 11.70 12.40 14.24 16.53
-15.04 -13.25 -16.55 -16.13 -11.56 -10.17 -9.88 -8.34 -8.29 -9.62 -8.49 -8.28 -5.91 -3.81 6.23 -1.38 -4.58 -7.29 -7.47 -8.42 -8.19 -8.27 -7.50 -6.87 -6.14 -4.86 -3.93 -2.88 -1.65 -0.42 -0.28 1.39 4.02 5.68 8.82 7.89 7.73 8.42 9.53 10.48 11.34 12.56 14.37
-13.06 -16.50 -16.69 -15.95 -11.73 -10.42 -10.43 -10.87 -10.99 -11.36 -10.70 -10.14 -8.07 -6.19 -5.75 -6.89 -8.87 -9.43 -9.26 -9.51 -9.39 -8.95 -7.24 -8.46 -7.31 -6.80 -4.55 -3.82 -2.45 -2.00 -1.35 0.01 3.98 4.75 8.54 7.50 7.10 7.68 8.64 9.29 10.45 11.25 12.69
-17.10 -15.36 -13.27 -13.93 -14.88 -14.21 -12.16 -10.17 -11.19 -10.39 -10.83 -9.38 -10.14 -9.07 -8.28 -8.57 -11.57 -12.09 -11.53 -10.57 -10.39 -9.78 -9.38 -9.38 -8.40 -8.30 -7.62 -6.36 -4.34 -3.11 -2.33 -0.30 3.79 6.83 9.18 7.41 6.79 7.50 7.91 7.95 9.22 10.41 11.94
-21.20 -18.43 -15.11 -12.55 -15.02 -14.27 -14.33 -12.53 -9.63 -10.59 -9.97 -8.30 -7.25 -7.63 -8.53 -11.40 -12.41 -13.12 -13.19 -13.07 -12.98 -11.37 -10.56 -10.18 -8.93 -8.54 -9.04 -8.29 -7.68 -7.13 -4.72 -0.55 4.70 10.66 7.00 6.29 6.17 5.14 6.13 6.85 7.30 8.98 9.23
-15.00 -13.19 -12.00 -7.21 -8.61 -8.47 -8.71 -7.80 -6.65 -5.95 -5.99 -5.83 -6.57 -8.14 -10.74 -12.59 -12.94 -13.44 -14.21 -14.96 -13.52 -12.01 -12.40 -10.84 -10.07 -10.90 -10.59 -7.88 -6.34 -2.71 1.48 7.39 12.48 8.47 5.11 4.20 3.60 4.53 5.35 4.84 4.20 6.01 6.56

GFSGL_sfc_wetblb_036.txt.gz
Wetbulb
33.16 33.04 32.74 32.38 32.34 32.44 31.99 31.61 31.13 30.18 29.62 28.89 28.32 28.13 27.53 27.32 27.34 27.60 27.25 27.30 26.63 27.05 27.94 27.27 27.07 27.87 27.66 28.08 28.45 28.37 27.82 27.95 25.50 28.40 30.64 32.45 32.21 32.33 33.73 35.32 36.04 36.37 37.47
33.15 32.69 32.53 32.36 32.02 31.63 31.20 30.70 30.16 29.03 28.34 27.28 26.70 26.50 26.12 25.77 25.85 25.41 25.21 25.62 25.00 24.93 25.22 25.12 25.05 25.66 25.15 25.98 26.31 25.75 25.90 26.78 25.59 24.01 27.01 28.21 29.14 31.27 32.32 32.03 33.15 34.47 35.43
32.67 32.32 32.05 31.72 31.37 31.07 30.27 29.44 28.29 27.64 26.75 25.83 25.30 24.73 24.30 24.13 24.25 24.79 24.79 24.57 24.63 24.66 24.59 23.77 23.63 23.45 22.38 23.28 23.32 23.06 23.75 24.16 24.48 23.91 24.12 27.04 28.19 29.57 29.25 30.52 31.33 32.82 34.49
32.08 31.96 31.61 31.66 31.24 30.65 29.60 28.07 26.86 26.32 25.41 24.60 24.12 23.51 23.16 22.78 23.10 23.95 23.99 24.16 24.24 24.24 24.01 23.49 22.79 22.08 21.43 21.33 21.10 21.28 21.96 22.21 22.24 22.25 22.67 23.35 24.47 26.87 28.24 27.29 27.86 31.67 32.05
31.50 31.41 31.61 31.82 31.06 29.51 27.37 25.21 24.31 23.90 23.82 23.10 22.42 21.42 21.65 21.53 22.94 22.54 23.28 23.36 22.86 22.48 22.63 22.30 22.34 21.90 21.01 21.14 20.57 20.54 20.39 20.19 19.98 19.71 19.56 20.81 20.80 21.81 21.80 24.86 24.65 27.28 28.59
31.73 30.97 31.90 30.82 28.18 26.25 24.56 23.02 22.33 21.40 20.69 20.07 19.33 18.59 18.31 20.29 19.42 21.12 22.50 21.91 21.54 20.72 20.33 20.69 20.93 20.67 20.83 21.06 21.17 21.68 21.75 19.45 18.39 18.85 18.38 17.66 19.13 20.83 22.09 21.77 21.55 20.77 20.27
29.95 29.95 29.10 28.18 25.74 24.49 23.04 21.33 20.60 19.96 19.56 18.42 18.03 17.67 17.31 17.96 17.98 20.63 21.34 20.76 20.46 20.21 19.14 18.89 18.97 19.98 19.70 19.43 20.03 21.01 21.17 21.88 22.68 20.73 19.19 18.72 19.06 20.46 21.27 20.17 20.29 20.76 21.16
29.30 28.71 27.41 25.91 24.74 22.57 20.35 19.59 19.44 18.85 17.88 17.50 17.14 16.46 16.35 16.95 17.47 18.98 20.31 20.41 19.71 19.29 18.92 18.61 18.36 18.71 19.56 19.33 19.04 19.53 19.97 20.84 21.49 22.00 21.63 21.96 22.57 23.48 23.17 22.65 22.52 22.99 24.37
27.93 27.42 25.94 24.78 22.45 20.26 18.41 18.27 18.29 17.50 16.73 16.05 16.04 14.99 13.58 14.04 15.80 18.09 19.07 19.16 18.69 18.32 18.95 19.38 19.33 18.76 20.49 22.61 21.54 20.68 21.00 21.74 24.23 25.15 25.61 26.23 26.62 26.96 26.55 24.74 22.40 21.23 19.35
27.62 26.91 25.73 23.59 20.81 18.64 18.13 16.85 17.44 16.28 15.52 15.24 14.82 14.01 12.05 11.04 14.22 16.60 18.43 19.10 18.01 18.51 19.40 19.90 21.55 21.45 22.74 23.80 22.08 21.61 20.47 21.78 22.81 23.43 23.69 24.51 25.18 24.91 25.42 24.44 22.95 19.27 19.24
26.99 24.74 22.41 21.11 18.42 18.08 16.79 16.09 14.51 13.58 13.04 11.84 11.19 12.26 11.17 11.54 12.80 15.99 18.38 19.00 18.79 19.13 19.43 19.73 20.50 22.32 23.54 24.28 23.73 21.03 20.16 21.73 21.31 21.04 21.51 22.55 23.28 23.65 24.26 24.51 23.87 22.05 19.54
23.04 21.27 19.20 17.01 16.95 15.17 12.87 12.83 11.12 10.99 9.76 10.21 10.35 11.42 13.56 12.95 13.74 16.57 18.43 20.03 21.20 19.73 19.05 20.13 20.62 22.34 21.10 21.06 19.76 19.86 20.68 20.11 17.86 17.45 17.45 17.87 18.59 19.52 21.34 22.37 23.02 23.46 23.83
19.02 17.39 15.43 13.92 14.01 13.17 11.00 11.04 11.51 11.16 10.85 12.41 11.90 12.65 13.16 14.13 15.18 16.43 17.76 19.30 20.75 19.99 20.83 20.93 19.41 18.06 17.05 15.68 16.22 16.68 15.04 13.65 13.40 13.07 13.02 14.06 15.94 17.91 18.47 18.90 20.21 21.02 21.42
16.80 14.64 13.07 10.87 11.75 10.48 12.01 12.26 12.09 12.54 12.29 12.08 11.66 11.75 12.49 13.51 14.69 16.38 17.13 18.58 20.45 20.81 19.82 15.30 15.08 13.77 13.73 13.60 11.64 12.43 11.92 11.64 10.28 9.90 11.31 13.05 14.60 14.64 14.87 16.43 16.38 17.57 17.08
15.68 13.95 13.88 13.09 10.75 12.69 11.94 13.29 12.43 13.34 12.94 11.73 11.36 11.63 12.56 13.83 15.38 17.73 19.55 19.71 20.75 20.73 16.21 12.67 10.02 9.27 8.68 9.45 9.87 9.90 10.49 10.42 9.55 10.43 10.02 10.34 11.23 12.67 13.44 15.78 15.95 16.36 15.04
14.55 13.54 13.99 13.27 12.39 12.19 12.43 12.14 14.33 15.51 16.38 17.76 19.05 18.90 18.37 18.04 19.88 19.03 20.05 20.41 20.53 17.35 12.04 7.81 6.64 7.07 6.76 7.13 7.31 7.79 8.94 8.79 9.44 8.95 8.99 9.84 10.18 10.92 12.09 13.80 15.88 15.85 14.96
15.92 14.14 13.17 11.26 12.15 11.71 10.64 10.16 9.79 11.77 12.69 14.22 15.51 16.59 17.75 18.63 18.12 18.36 18.93 19.42 14.43 12.05 6.90 5.83 5.29 5.78 5.86 6.51 6.92 7.05 6.79 8.28 8.35 8.80 8.91 9.55 10.33 10.98 11.12 12.43 13.73 15.54 15.30
10.97 8.20 12.13 11.98 11.22 10.68 9.48 8.77 7.88 6.73 6.44 7.38 8.49 9.41 11.57 13.85 16.08 16.41 17.32 14.63 8.26 6.35 3.97 3.74 3.59 4.36 4.92 5.27 5.88 5.87 6.22 6.75 7.39 8.09 8.34 9.21 10.01 10.55 10.42 10.95 12.29 12.55 14.43
7.59 8.70 8.13 8.39 7.66 6.82 6.74 5.96 5.39 4.85 4.35 3.89 4.42 6.29 6.78 9.00 11.44 13.66 12.47 6.86 3.09 1.87 3.15 2.78 3.42 3.31 3.56 4.12 4.45 4.81 5.03 5.50 6.26 6.48 7.92 9.22 10.40 10.90 10.08 10.63 11.37 11.28 12.46
3.68 1.99 3.29 5.73 5.30 4.11 4.12 3.36 3.27 3.13 2.68 2.59 2.68 3.46 4.22 2.02 4.01 5.69 4.77 2.73 1.21 1.22 1.70 1.30 1.90 2.11 2.04 2.31 2.97 3.56 3.64 4.59 5.45 6.58 7.67 9.08 10.45 11.41 9.89 9.73 10.61 11.11 12.14
4.26 3.50 0.69 2.64 2.39 2.60 2.13 1.47 1.88 1.88 1.31 1.62 1.94 3.47 6.33 3.80 5.60 5.48 3.79 1.90 1.19 0.81 0.55 0.76 0.81 0.78 1.04 1.26 1.57 2.05 2.53 3.46 4.13 5.51 6.80 8.40 9.29 9.27 10.16 10.70 10.92 11.65 12.67
1.03 1.05 0.20 -0.89 0.33 0.15 0.11 0.34 0.27 -0.14 -0.11 -0.12 1.12 2.53 6.84 5.64 5.14 2.93 1.56 0.91 0.42 -0.01 -0.24 -0.85 -0.86 -0.10 0.35 -0.00 0.33 0.64 0.66 1.27 2.63 4.53 5.82 6.13 8.36 10.19 10.09 10.02 10.29 11.33 12.25
-1.25 -1.19 -1.39 -1.92 -2.02 -3.09 -2.97 -1.88 -1.61 -1.48 -1.47 -1.39 -0.89 -0.42 0.37 0.43 0.40 -0.06 -0.45 -0.96 -1.47 -1.94 -1.16 -1.62 -2.04 -2.20 -0.67 -0.56 0.57 0.69 -0.39 0.06 1.60 2.81 2.36 4.74 8.54 9.57 9.53 9.46 9.68 9.67 11.02
-1.10 -1.27 -1.55 -1.41 -1.92 -2.27 -2.44 -2.25 -1.88 -3.70 -3.94 -2.49 -1.94 -1.59 -1.42 -1.00 -1.14 -1.39 -2.41 -2.77 -3.11 -2.98 -2.59 -3.31 -3.82 -3.87 -3.61 -3.34 -1.27 -0.11 0.73 0.53 1.71 1.88 3.25 6.95 8.66 9.02 8.56 8.66 9.06 9.12 10.49
-1.74 -2.01 -2.60 -2.60 -2.89 -2.82 -2.98 -2.97 -2.95 -2.83 -2.57 -2.39 -2.04 -1.57 -1.01 -1.13 -2.00 -2.91 -3.41 -4.51 -5.76 -5.76 -4.78 -4.60 -4.33 -3.98 -4.34 -5.00 -4.99 -4.47 -3.44 -2.09 -1.23 2.79 8.10 10.03 8.54 7.30 8.03 8.12 7.61 8.68 8.76
-1.35 -2.18 -2.08 -1.96 -2.29 -2.30 -2.45 -2.59 -2.26 -1.51 -1.44 -0.78 -0.39 -0.61 -1.13 -2.12 -3.27 -4.32 -5.25 -6.35 -6.79 -6.30 -5.79 -5.11 -5.14 -5.94 -6.12 -4.97 -3.90 -2.19 -1.17 3.89 5.85 10.19 10.04 10.25 8.14 8.28 8.12 8.16 7.16 8.10 7.93

GFSGL_sfc_wetblb_042.txt.gz
Wetbulb
30.90 30.65 29.91 29.65 30.10 29.82 28.65 28.10 27.45 26.93 26.51 26.00 25.75 25.10 24.67 24.14 23.89 23.09 22.95 22.86 22.43 22.51 22.60 22.50 22.48 22.84 21.45 21.28 21.36 21.49 20.98 20.21 17.83 20.31 22.37 23.34 22.72 23.13 24.73 25.42 26.34 25.79 27.22
30.64 30.04 29.39 29.66 28.96 28.17 27.87 27.52 26.67 25.67 25.85 24.94 24.65 24.50 24.17 23.81 23.34 22.57 22.20 22.39 21.72 21.85 22.26 22.12 21.40 24.20 20.49 20.20 19.63 19.02 18.84 18.97 17.85 16.75 19.43 20.24 20.32 21.76 22.17 21.85 24.18 26.33 25.31
30.45 29.76 28.77 27.92 27.54 27.27 26.75 26.43 26.13 25.14 24.38 24.09 24.02 23.28 23.21 23.17 22.72 22.41 22.45 22.48 22.37 22.28 22.20 21.55 21.08 20.75 20.12 19.57 18.43 17.74 18.10 20.43 18.62 17.90 17.02 19.35 19.46 20.34 20.14 21.55 21.83 22.23 25.46
30.15 29.11 27.98 27.77 27.39 27.06 26.48 25.68 25.17 24.77 23.70 22.92 23.04 22.89 22.55 22.48 22.52 22.23 22.35 22.18 22.10 22.36 22.73 22.18 21.19 20.48 19.83 18.50 19.07 18.75 19.47 18.24 18.05 16.98 16.67 16.89 17.84 19.90 19.73 18.34 18.74 21.04 20.74
29.76 28.27 28.23 27.86 27.62 27.25 26.01 25.15 24.46 24.00 23.63 23.18 22.39 21.80 21.50 21.50 22.50 21.20 21.96 21.27 21.18 21.00 21.35 21.94 21.48 21.55 23.83 23.17 21.16 19.32 18.99 17.04 16.77 16.37 16.46 16.75 16.70 17.47 17.56 19.51 18.61 19.32 20.06
29.12 28.32 28.11 28.48 28.04 26.79 25.37 24.35 23.47 22.98 22.00 21.40 20.57 20.21 19.17 22.13 24.68 23.91 23.11 21.41 21.88 21.31 20.28 20.56 20.53 20.84 21.29 23.44 23.91 24.35 23.33 19.08 16.43 15.45 16.82 17.11 17.97 18.47 19.41 18.93 18.48 17.19 15.11
28.04 26.63 27.08 28.24 27.65 25.39 24.51 23.19 22.47 20.97 20.73 19.41 19.19 19.10 18.49 19.04 24.63 24.37 23.79 22.10 20.65 20.14 20.27 20.57 20.48 21.16 20.12 19.70 21.45 23.31 23.53 23.84 25.02 22.16 19.23 18.65 18.20 19.44 19.92 18.77 19.01 18.97 18.35
28.23 27.35 27.29 27.23 25.42 23.83 22.93 22.08 20.52 20.07 19.16 18.26 17.99 18.17 17.98 18.71 24.07 24.36 23.69 20.94 19.75 19.87 19.91 19.86 19.37 19.30 19.63 20.05 19.96 20.00 21.18 21.70 22.38 22.92 22.06 21.79 22.05 23.20 23.60 23.38 22.75 21.98 22.94
27.70 27.75 28.04 26.63 24.71 23.74 22.57 20.44 20.00 18.92 17.61 16.71 17.11 15.12 14.76 15.19 22.99 23.74 22.49 19.00 18.99 18.96 20.41 20.17 19.78 19.23 21.81 24.16 22.05 18.78 19.28 19.02 22.32 23.46 24.01 24.96 25.05 24.66 23.67 20.29 17.05 16.96 15.65
27.95 28.27 27.22 26.34 25.20 23.67 22.63 19.08 18.08 16.20 18.27 18.49 17.71 15.09 14.57 12.20 21.10 22.80 22.20 18.44 12.14 17.09 18.57 20.55 22.78 22.40 24.60 25.21 22.17 17.74 14.79 15.37 16.77 17.54 15.13 16.64 18.51 18.74 21.22 19.77 18.91 16.08 16.19
25.30 25.50 25.16 25.27 25.10 23.28 19.01 16.79 17.42 14.64 17.17 13.96 14.15 13.21 12.61 13.26 12.94 21.12 22.71 19.42 16.84 15.49 16.59 17.82 20.13 23.08 24.08 25.05 24.40 18.01 14.96 19.25 12.33 9.56 10.80 11.91 13.04 14.23 15.42 17.33 18.72 16.45 13.13
24.35 23.68 22.25 20.97 21.39 19.82 17.60 13.49 14.51 13.93 10.97 9.25 8.41 9.56 12.97 14.13 16.83 19.04 21.85 23.06 21.90 17.11 15.23 18.53 18.91 22.71 23.97 23.61 21.67 20.70 21.00 17.64 6.00 6.35 7.65 8.05 9.76 11.62 13.58 14.43 15.71 16.10 17.16
21.39 18.51 14.76 15.72 16.87 16.17 15.40 13.28 10.42 9.99 11.22 9.97 11.47 10.44 11.54 14.75 14.52 20.88 21.93 22.35 23.30 20.58 19.36 20.21 23.12 23.44 21.95 18.14 17.91 18.99 15.26 7.55 4.66 1.23 5.94 8.56 11.08 11.94 13.02 12.66 13.92 14.76 15.38
15.90 15.27 14.63 15.25 13.45 12.55 14.08 13.36 12.31 10.83 10.17 10.99 11.49 12.02 8.96 10.94 12.21 13.49 14.59 15.00 18.94 19.26 19.97 16.48 17.10 20.31 19.16 16.50 11.54 13.04 11.68 9.99 8.85 7.63 8.23 10.07 10.36 9.51 9.71 11.27 9.89 10.76 10.10
16.12 14.74 14.11 13.32 11.89 10.49 11.89 12.62 13.32 10.62 13.39 7.19 7.85 8.35 6.74 7.67 11.15 16.72 14.97 10.94 11.62 15.54 16.59 9.25 4.36 4.39 4.38 5.80 5.26 5.85 7.50 7.36 6.75 7.71 7.20 6.28 7.16 8.57 8.19 9.60 9.42 8.86 7.65
14.59 14.00 13.18 12.18 9.77 10.47 9.51 7.57 19.49 19.92 20.95 22.45 22.82 14.55 6.54 17.54 20.23 21.52 22.88 23.44 23.87 24.68 12.26 -1.26 -1.44 1.25 3.55 3.46 2.43 3.84 5.98 6.71 6.55 6.31 5.61 5.89 6.12 6.24 6.26 7.38 8.65 7.75 7.20
10.84 11.83 11.31 11.50 9.97 7.89 6.85 6.41 4.68 11.81 22.00 22.46 22.85 23.18 23.53 23.39 23.92 24.08 23.94 24.19 24.94 23.33 2.01 -2.86 1.95 2.04 0.45 2.97 1.67 2.75 5.04 5.48 4.20 4.53 4.71 4.49 4.53 4.58 5.13 5.62 6.43 7.20 6.91
6.78 9.39 9.03 5.99 6.54 4.75 4.57 5.23 3.94 2.61 0.03 1.84 12.65 16.41 17.95 18.88 19.55 20.37 21.09 21.16 16.99 16.70 -4.17 -0.28 0.85 1.72 -1.43 -1.65 -0.26 1.93 3.12 0.91 0.42 1.48 1.67 1.09 1.86 3.05 3.35 3.69 5.18 4.83 5.66
6.67 5.00 5.33 4.76 3.06 3.13 2.67 1.65 0.28 -0.28 -1.62 -3.73 -3.06 6.35 9.04 14.54 15.88 17.41 18.74 15.07 12.62 5.44 0.81 -2.19 -0.62 -1.93 0.34 -1.93 -6.01 -2.05 -4.25 -3.70 -5.35 -4.68 -2.92 -1.13 0.90 1.86 1.87 3.92 4.06 4.54 6.38
0.43 3.46 2.54 1.71 0.53 -0.44 -0.01 -1.80 -1.87 -2.65 -3.59 -3.39 -5.28 -2.37 -4.07 -7.80 -10.59 -9.83 -4.10 1.79 -3.06 0.69 -3.06 -3.62 -2.76 -3.54 -3.40 -3.33 -10.11 -4.30 -7.23 -8.62 -9.33 -11.99 -8.31 -5.55 -0.34 1.40 1.77 1.95 2.28 3.61 5.56
-1.15 -4.07 -1.11 -3.87 -5.64 -6.65 -6.63 -5.50 -3.38 -5.01 -3.68 -7.86 -6.42 -1.06 10.17 5.44 3.19 -4.35 -3.93 -0.49 -0.50 -5.04 -0.51 -0.15 -1.11 -1.71 -3.50 -8.30 -11.49 -7.89 -10.58 -6.60 -11.63 -13.51 -12.33 -5.25 -1.73 -1.02 -0.57 1.09 1.88 5.30 5.82
-3.59 -5.73 -9.23 -10.36 -8.10 -6.69 -7.80 -5.01 -5.76 -7.29 -8.94 -9.27 -6.29 -4.15 7.86 1.06 -1.35 0.83 2.57 4.43 0.63 1.23 1.91 -0.49 -3.78 -3.46 -2.73 -8.55 -7.57 -10.82 -11.10 -10.50 -12.42 -14.58 -10.49 -6.43 -3.01 -3.31 -2.36 -0.50 1.85 5.36 4.56
-6.56 -7.89 -9.71 -9.09 -7.22 -4.12 -6.89 -10.63 -11.41 -11.48 -11.36 -12.24 -10.56 -7.25 -10.91 -10.57 -7.95 -3.69 -0.15 -1.63 0.31 1.20 0.64 -1.12 -1.85 -2.54 -2.97 -7.02 -8.32 -8.87 -8.35 -7.38 -9.70 -16.27 -9.58 -5.68 -4.70 -4.53 -3.76 -1.83 3.42 3.12 3.25
-8.82 -7.26 -4.77 -5.55 -7.55 -8.67 -9.70 -11.02 -11.06 -10.45 -12.37 -13.32 -16.07 -13.46 -8.07 -8.19 -11.07 -7.08 -2.68 0.90 0.59 -0.02 -0.39 -0.72 -2.06 -3.25 -2.98 -9.55 -11.99 -12.59 -11.54 -8.77 -13.66 -7.71 -12.46 -5.91 -4.86 -4.13 -3.71 -0.32 4.54 1.98 2.26
-5.92 -4.79 -4.61 -7.77 -11.85 -10.98 -11.83 -13.83 -12.85 -15.87 -15.44 -11.34 -10.86 -10.03 -9.81 -8.26 -6.44 -4.41 -0.88 0.42 -0.41 -1.10 -1.62 -2.22 -3.30 -3.87 -5.97 -9.67 -10.11 -13.65 -12.83 -4.21 -6.80 -7.64 -12.66 -10.08 -6.19 -6.27 -4.03 3.56 0.99 -1.95 -2.98
-3.27 -6.17 -8.31 -9.16 -11.18 -13.40 -15.31 -14.62 -14.53 -13.37 -12.46 -10.82 -9.49 -8.67 -9.59 -6.19 -3.25 -0.86 -1.40 -1.06 -1.88 -2.14 -3.37 -4.22 -4.96 -6.35 -9.35 -9.13 -10.92 -9.26 -8.37 -2.36 -5.02 -6.03 -6.35 -5.57 -3.09 1.44 5.64 2.47 -5.83 -7.82 -6.30

GFSGL_sfc_wetblb_048.txt.gz
Wetbulb
31.13 30.99 30.02 29.25 29.39 29.17 28.13 27.00 26.60 26.01 25.49 25.25 25.03 24.34 23.94 23.63 23.50 22.66 22.33 22.38 22.06 21.83 21.65 21.80 21.58 21.57 20.28 19.71 19.70 19.92 19.55 18.57 15.92 18.20 19.18 20.28 19.69 19.73 20.90 21.44 22.30 21.60 22.64
30.80 30.08 29.71 29.26 28.41 27.60 26.92 26.06 25.72 25.65 25.28 25.15 24.57 24.20 23.70 23.34 23.00 22.38 22.02 22.17 21.49 21.66 21.75 21.52 21.07 23.20 19.72 19.22 18.62 18.16 17.83 17.72 16.57 15.24 18.21 18.53 18.63 19.78 19.95 19.42 21.85 23.61 22.35
29.13 28.89 27.83 27.63 27.48 27.10 26.18 25.56 25.65 25.08 24.78 24.61 24.03 23.30 23.09 22.93 22.56 22.47 22.62 22.32 22.09 22.10 21.90 21.19 20.96 20.59 19.53 18.94 18.03 17.26 17.33 19.45 17.51 16.82 16.22 18.92 19.21 20.25 19.73 20.75 21.31 21.84 23.83
29.11 28.21 27.59 27.22 27.77 27.18 26.43 25.76 25.68 25.29 24.40 23.82 23.19 23.23 22.99 22.71 22.92 22.81 22.52 21.85 21.85 22.11 22.41 22.09 21.31 20.18 19.52 18.82 18.36 18.09 19.14 18.03 17.90 16.98 16.83 17.44 18.60 20.33 20.60 19.14 18.75 20.94 20.52
28.92 27.91 27.69 27.71 27.46 26.51 26.23 25.64 25.06 24.83 24.96 24.11 23.19 22.39 23.09 22.47 23.27 22.27 22.21 20.92 20.72 20.46 21.05 21.81 21.36 21.16 23.56 23.02 20.46 19.18 18.76 17.00 17.29 16.64 16.98 17.44 17.91 18.65 17.35 18.78 17.40 18.61 20.00
29.19 28.05 28.03 27.53 26.70 26.53 26.63 25.44 25.12 24.43 23.20 22.98 22.86 21.85 20.89 23.10 27.11 28.01 23.40 21.06 21.44 20.81 19.99 20.27 20.54 20.31 22.04 25.41 26.02 26.21 24.34 15.67 3.33 11.75 17.85 18.42 17.72 17.72 17.76 17.52 17.70 14.85 12.51
28.46 28.24 27.81 28.02 27.17 27.16 26.65 25.70 24.74 23.83 23.35 22.53 21.69 21.94 20.71 20.47 28.38 29.20 28.69 21.59 20.98 20.30 20.10 20.37 20.46 21.18 19.78 19.22 21.99 24.19 24.23 24.74 25.28 22.86 20.11 18.18 17.18 17.76 19.45 16.73 15.70 14.88 13.78
28.62 28.52 28.26 28.03 27.47 26.74 25.97 25.40 24.48 23.79 23.00 22.63 21.55 20.65 20.19 20.46 27.96 29.26 29.00 22.31 20.91 20.46 19.87 19.60 19.39 19.32 19.33 19.00 18.41 18.04 18.67 19.43 20.67 22.28 21.42 19.99 19.77 21.50 19.28 17.51 15.71 13.20 13.49
28.37 28.45 28.51 28.44 27.91 26.22 25.83 25.19 24.90 23.86 22.18 21.78 21.94 19.66 18.82 18.13 27.55 28.58 27.75 21.41 21.19 20.02 20.09 19.57 19.09 18.76 21.42 24.17 20.90 16.53 18.51 20.13 24.02 25.34 24.92 24.12 23.38 22.84 20.10 15.51 8.35 8.13 7.10
28.93 28.98 29.19 29.27 28.91 26.92 27.19 26.47 25.63 24.81 23.59 21.28 20.67 18.52 17.87 16.44 25.19 28.32 27.72 21.14 15.86 18.71 18.64 19.62 22.23 21.08 22.86 24.52 21.44 19.02 15.34 17.09 17.81 11.62 13.18 14.58 16.18 15.00 17.82 15.13 12.63 7.11 7.53
30.83 30.77 28.69 28.57 28.81 28.49 27.83 25.37 21.75 21.70 19.58 17.43 17.96 16.88 15.78 15.72 16.05 26.80 28.21 21.83 19.45 15.80 16.38 16.67 18.26 22.66 24.41 25.29 26.09 21.88 19.89 19.57 11.87 4.59 5.77 9.19 11.03 11.47 12.49 14.28 14.34 11.93 8.50
27.17 26.82 26.76 27.12 27.93 27.24 25.54 18.76 18.39 18.50 17.57 14.89 13.62 13.08 15.01 14.57 18.20 23.19 26.50 27.47 25.32 15.86 15.43 17.61 17.92 22.86 24.46 25.56 25.30 25.92 26.61 23.64 2.15 -1.36 0.15 6.00 8.06 9.39 11.57 12.52 12.93 13.06 13.54
25.07 24.95 23.75 23.06 22.84 22.21 20.74 17.18 14.33 15.24 17.56 16.84 16.34 15.98 11.79 13.92 14.78 23.10 24.74 25.66 26.26 23.39 22.24 20.76 23.39 24.77 25.55 25.47 26.89 25.62 20.11 10.65 2.69 -2.45 0.90 6.43 9.22 10.88 11.87 10.46 11.19 11.54 11.44
21.76 19.78 18.19 19.89 16.45 15.73 18.26 17.83 17.72 16.76 16.82 15.57 13.46 13.61 7.59 10.48 12.32 13.16 14.27 15.66 21.30 22.09 22.64 17.97 20.54 24.01 24.39 22.67 16.63 19.05 14.83 12.02 9.76 5.64 6.34 8.82 9.76 8.45 6.93 8.34 6.57 6.82 5.45
16.90 15.49 15.42 15.52 15.68 13.24 12.65 13.03 14.37 9.25 14.68 7.31 8.41 8.63 6.53 6.10 9.91 16.74 14.25 10.23 9.59 13.81 14.31 2.21 3.46 9.52 11.89 12.53 8.88 9.54 10.99 10.00 8.20 6.18 4.42 4.74 6.04 5.84 5.46 6.33 5.23 3.95 2.36
16.05 15.10 14.71 15.14 11.03 11.76 11.12 7.68 19.82 19.16 22.11 22.85 21.37 13.14 6.64 17.46 20.92 22.30 23.32 24.14 24.87 25.38 21.40 15.58 13.38 11.84 12.09 13.15 13.04 11.10 9.29 8.46 8.33 6.86 3.39 4.07 3.71 2.70 2.38 2.72 2.88 1.58 0.93
13.33 11.96 10.54 11.29 10.64 9.36 6.25 9.92 8.61 11.24 23.12 23.21 24.13 24.91 24.25 20.33 23.86 24.83 24.34 24.60 24.54 23.96 17.96 14.94 14.61 11.60 10.64 11.96 11.49 9.20 7.66 7.65 7.35 5.14 3.93 2.63 2.27 -0.42 -1.39 -1.64 -0.17 0.76 -0.48
4.90 10.46 10.69 8.47 7.84 6.78 6.68 5.50 5.56 6.58 6.99 3.28 13.61 16.66 18.11 18.41 18.67 19.53 20.56 18.28 0.56 1.25 -2.27 -5.77 -1.51 4.14 7.12 9.31 9.29 7.70 6.48 4.13 3.34 2.72 0.91 -1.86 -4.01 -9.31 -5.27 -4.34 -2.97 -3.02 -1.58
6.19 5.02 5.33 5.29 5.32 6.08 5.11 4.11 2.37 0.60 -2.47 -3.57 -1.47 7.74 5.80 12.35 12.84 13.60 13.99 -8.09 -11.58 -13.20 -12.57 -11.11 -8.58 -4.25 0.74 1.42 2.91 2.22 -0.17 -0.96 -1.03 -1.36 -5.02 -6.96 -7.09 -16.51 -12.18 -6.57 -3.38 -1.93 -1.25
2.20 5.19 4.49 3.91 2.88 2.83 3.30 1.79 -0.02 -0.97 -2.84 -0.57 -2.03 -2.69 -4.47 -5.31 -9.03 -11.51 -12.26 -14.24 -17.07 -16.93 -15.60 -15.08 -10.94 -7.40 -2.78 -3.55 -4.24 -4.30 -4.40 -4.61 -2.13 -2.63 -5.47 -7.63 -9.24 -16.51 -9.17 -7.98 -5.31 -4.14 -4.00
1.01 0.49 1.39 -0.70 -0.72 -1.14 -2.45 -1.66 -1.83 -4.26 -5.49 -8.96 -5.89 -2.39 7.77 -5.46 -7.39 -11.05 -13.63 -15.69 -17.40 -14.21 -11.12 -12.00 -11.29 -9.22 -5.40 -4.30 -5.27 -5.14 -4.46 -2.68 -1.17 -2.82 -6.64 -10.00 -12.79 -21.55 -16.44 -6.50 -5.49 -5.64 -4.32
-3.32 -5.33 -5.29 -5.54 -4.91 -4.14 -6.73 -3.94 -6.00 -7.15 -10.37 -9.42 -7.78 -4.96 6.46 -4.94 -11.90 -14.59 -16.73 -17.61 -14.48 -13.52 -11.23 -8.88 -9.84 -11.74 -11.27 -8.81 -5.24 -2.95 -3.33 -3.39 -2.40 -3.75 -10.56 -10.12 -19.57 -22.24 -19.50 -12.40 -9.99 -7.09 -5.99
-5.17 -6.03 -7.14 -10.12 -6.99 -5.31 -5.79 -10.19 -13.54 -13.47 -11.34 -8.48 -4.79 -5.00 -9.10 -11.84 -16.21 -16.85 -16.59 -15.94 -15.21 -13.10 -10.99 -15.80 -10.67 -9.11 -11.40 -10.69 -5.76 -1.73 -2.77 -2.87 -2.36 -6.28 -9.65 -14.61 -23.35 -21.55 -23.11 -17.29 -12.53 -9.39 -7.90
-6.31 -4.67 -2.78 -4.38 -4.26 -5.31 -9.02 -14.01 -9.04 -7.84 -9.27 -12.07 -15.72 -16.75 -12.68 -14.25 -16.44 -15.82 -14.79 -13.79 -13.81 -13.25 -13.35 -13.34 -11.06 -9.89 -11.31 -12.16 -11.60 -8.91 -4.25 -4.87 -7.37 -9.39 -13.10 -18.96 -17.53 -19.56 -21.48 -19.14 -13.61 -9.32 -5.94
-7.15 -6.73 -7.04 -7.89 -10.92 -11.63 -11.66 -13.80 -13.10 -15.14 -15.40 -14.59 -13.89 -14.12 -15.46 -17.18 -15.87 -15.95 -14.86 -13.92 -13.00 -12.21 -11.19 -11.08 -11.46 -11.20 -9.20 -9.93 -10.56 -13.18 -10.50 -3.01 -4.98 -12.49 -21.46 -21.90 -18.85 -21.77 -24.07 -20.47 -12.53 -8.62 -7.23
-5.89 -6.32 -8.52 -9.94 -11.31 -10.54 -13.25 -13.09 -13.66 -15.26 -15.90 -13.47 -14.66 -17.57 -17.57 -15.61 -14.34 -14.64 -14.06 -14.27 -12.45 -11.00 -10.90 -11.67 -12.53 -11.70 -11.51 -10.86 -11.91 -9.33 -8.35 -2.33 -7.71 -11.26 -15.66 -17.49 -18.58 -18.94 -19.22 -15.73 -13.53 -7.72 -4.24